                ,  0.195,  0.292,  0.389,  0.486,  0.583,  0.680,  0.777,  0.874,  0.971,  1.068,  1.165,  1.262,  1.359,  1.456,  1.553,  1.651,  1.748,  1.845,  1.942,  2.039,  2.136,  2.233,  2.330,  2.427,  2.524,  2.621,  2.718,  2.815,  2.912,  3.009,  3.106,  3.203,  3.300,  3.397,  3.494,  3.591,  3.688,  3.785,  3.882,  3.979,  4.076,  4.173,  4.270,  4.367,  4.464,  4.561,  4.658,  4.755,  4.852,  4.950,  5.047,  5.144,  5.241,  5.338,  5.435,  5.532,  5.629,  5.726,  5.823,  5.920,  6.017,  6.114,  6.211,  6.308,  6.405,  6.502,  6.599,  6.696,  6.793,  6.890,  6.987,  7.084,  7.181,  7.278,  7.375,  7.472,  7.569,  7.666,  7.763,  7.860,  7.957,  8.054,  8.151,  8.249,  8.346,  8.443,  8.540,  8.637,  8.734,  8.831,  8.928,  9.025,  9.122,  9.219,  9.316,  9.413,  9.510,  9.607
2012/01/06 00:00,    0.8,  999.0,  999.0,    5.3,    2.7,    4.2,  999.0,    5.2,    5.9,    6.4,    5.6,    5.4,    5.2,    5.3,    6.9,    7.3,    7.8,  999.0,    8.0,    8.5,    8.9,    8.7,    8.6,    7.9,    7.0,    6.7,    6.0,    6.6,    6.6,    6.0,    5.8,    4.9,  999.0,    5.2,    5.7,  999.0,  999.0,  999.0,  999.0,  999.0,  999.0,  999.0,    5.1,    5.2,    5.8,    5.8,    6.2,    5.8,    5.9,  999.0,  999.0,    6.8,  999.0,  999.0,  999.0,  999.0,  999.0,  999.0,  999.0,  999.0,  999.0,  999.0,  999.0,  999.0,  999.0,  999.0,  999.0,  999.0,  999.0,  999.0,  999.0,  999.0,  999.0,  999.0,  999.0,  999.0,  999.0,  999.0,  999.0,  999.0,  999.0,  999.0,    6.6,  999.0,  999.0,  999.0,  999.0,    6.6,  999.0,  999.0,  999.0,  999.0,  999.0,  999.0,  999.0,  999.0,  999.0,  999.0
2012/01/06 00:10,    0.8,  999.0,  999.0,    3.8,    3.2,    3.7,  999.0,    5.5,    6.1,    6.4,    6.0,    5.2,    5.4,    5.3,    6.8,    7.2,    7.3,    7.7,  999.0,  999.0,    8.0,    8.4,    8.4,  999.0,    6.7,    6.6,    6.2,    6.7,    6.8,    6.2,    4.9,    5.0,    4.9,  999.0,  999.0,  999.0,  999.0,  999.0,  999.0,  999.0,  999.0,  999.0,    5.3,    5.7,    6.2,    6.3,  999.0,  999.0,  999.0,  999.0,  999.0,  999.0,  999.0,  999.0,  999.0,  999.0,  999.0,  999.0,  999.0,  999.0,  999.0,  999.0,  999.0,  999.0,  999.0,  999.0,  999.0,  999.0,  999.0,  999.0,  999.0,  999.0,  999.0,  999.0,  999.0,  999.0,  999.0,  999.0,  999.0,  999.0,  999.0,  999.0,  999.0,  999.0,  999.0,  999.0,  999.0,  999.0,  999.0,  999.0,  999.0,  999.0,    6.6,  999.0,  999.0,  999.0,  999.0,  999.0
2012/01/06 00:20,  999.0,    2.0,  999.0,    3.1,    3.2,    3.5,    4.1,    5.0,    6.1,    6.7,    6.4,    5.4,    5.1,  999.0,    6.3,    7.1,    7.3,    7.3,    7.7,    8.8,  999.0,    8.4,    7.9,    8.6,    7.0,    6.7,    6.9,    7.0,    7.4,    7.1,    6.2,  999.0,  999.0,  999.0,  999.0,  999.0,  999.0,  999.0,  999.0,  999.0,  999.0,  999.0,    4.9,    5.4,    6.0,  999.0,  999.0,  999.0,  999.0,  999.0,  999.0,  999.0,  999.0,  999.0,  999.0,  999.0,  999.0,  999.0,  999.0,  999.0,  999.0,  999.0,  999.0,  999.0,  999.0,  999.0,  999.0,  999.0,  999.0,  999.0,  999.0,  999.0,  999.0,  999.0,  999.0,  999.0,  999.0,  999.0,  999.0,  999.0,  999.0,  999.0,  999.0,  999.0,  999.0,  999.0,  999.0,  999.0,  999.0,  999.0,  999.0,  999.0,  999.0,    6.7,  999.0,    6.6,  999.0,  999.0
2012/01/06 00:30,    0.8,    2.4,    3.2,    3.6,    4.1,    4.3,    4.6,    5.6,    6.0,    6.5,    6.0,    5.6,    5.6,    6.1,    6.4,    7.1,    7.0,    7.2,    6.8,    7.4,    7.7,    8.6,    8.5,  999.0,    7.0,  999.0,    7.3,    7.7,  999.0,    7.3,    6.3,    5.7,    5.8,    5.4,    5.5,    5.4,  999.0,  999.0,  999.0,  999.0,  999.0,  999.0,  999.0,    4.8,    5.7,  999.0,  999.0,  999.0,  999.0,  999.0,  999.0,  999.0,  999.0,  999.0,  999.0,  999.0,  999.0,  999.0,  999.0,  999.0,  999.0,  999.0,  999.0,  999.0,  999.0,  999.0,  999.0,  999.0,  999.0,  999.0,  999.0,  999.0,  999.0,  999.0,  999.0,  999.0,  999.0,  999.0,  999.0,  999.0,  999.0,  999.0,  999.0,  999.0,  999.0,    6.7,  999.0,  999.0,    6.7,    6.7,  999.0,  999.0,  999.0,  999.0,  999.0,  999.0,  999.0,    6.6
2012/01/06 00:40,    1.6,    2.3,    2.7,    3.4,    3.8,    4.4,    4.7,    5.4,    6.0,    6.3,    6.4,    5.8,    5.8,    5.8,    6.1,    6.2,  999.0,    7.4,    6.3,    6.4,    7.0,    7.6,    7.9,    8.5,    7.1,    7.1,    7.2,    7.4,    8.0,  999.0,    6.5,    5.7,    6.3,    6.1,  999.0,    5.9,    5.6,  999.0,  999.0,  999.0,  999.0,  999.0,  999.0,    4.8,    5.5,    6.3,  999.0,  999.0,  999.0,  999.0,  999.0,  999.0,  999.0,  999.0,  999.0,  999.0,  999.0,  999.0,  999.0,  999.0,  999.0,  999.0,  999.0,  999.0,  999.0,  999.0,  999.0,  999.0,  999.0,  999.0,  999.0,  999.0,  999.0,  999.0,  999.0,  999.0,  999.0,  999.0,  999.0,  999.0,  999.0,  999.0,  999.0,  999.0,  999.0,  999.0,  999.0,  999.0,  999.0,  999.0,  999.0,  999.0,  999.0,  999.0,  999.0,  999.0,  999.0,    6.7
2012/01/06 00:50,    2.3,    2.2,    3.2,    3.5,    3.5,    4.0,    4.7,    5.3,    5.7,    6.3,    6.3,    6.1,    5.6,    5.6,    6.1,    6.4,  999.0,  999.0,    6.5,    6.0,    6.5,    7.0,    7.1,    7.5,    6.3,    6.3,    6.6,    6.7,    6.7,    7.0,    6.9,    5.8,    6.3,  999.0,    6.0,    5.6,  999.0,  999.0,  999.0,  999.0,  999.0,  999.0,  999.0,    5.3,    5.8,    6.5,  999.0,  999.0,  999.0,  999.0,  999.0,    6.6,  999.0,  999.0,  999.0,  999.0,  999.0,  999.0,  999.0,  999.0,  999.0,  999.0,  999.0,  999.0,  999.0,  999.0,  999.0,  999.0,  999.0,  999.0,  999.0,  999.0,  999.0,  999.0,  999.0,  999.0,  999.0,  999.0,  999.0,  999.0,  999.0,  999.0,  999.0,  999.0,  999.0,  999.0,  999.0,  999.0,  999.0,  999.0,  999.0,  999.0,  999.0,  999.0,  999.0,  999.0,  999.0,  999.0
2012/01/06 01:00,    1.4,    3.0,    3.3,    3.6,    3.8,    4.0,    3.9,    4.5,    4.8,    5.1,    6.1,    6.5,    6.0,    6.3,  999.0,  999.0,  999.0,  999.0,    7.2,    6.0,    6.1,    6.7,    7.1,    7.3,    7.2,    6.3,    6.1,    6.3,    6.1,    7.1,    7.4,    6.9,    6.5,  999.0,  999.0,  999.0,  999.0,  999.0,  999.0,  999.0,  999.0,  999.0,    5.0,    4.8,    5.6,  999.0,  999.0,  999.0,  999.0,  999.0,  999.0,  999.0,  999.0,  999.0,  999.0,  999.0,  999.0,  999.0,  999.0,  999.0,  999.0,  999.0,  999.0,  999.0,  999.0,  999.0,  999.0,  999.0,  999.0,  999.0,  999.0,  999.0,  999.0,  999.0,  999.0,  999.0,  999.0,  999.0,  999.0,  999.0,  999.0,  999.0,  999.0,  999.0,  999.0,  999.0,  999.0,  999.0,  999.0,  999.0,  999.0,  999.0,  999.0,  999.0,  999.0,  999.0,  999.0,  999.0
2012/01/06 01:10,  999.0,  999.0,    3.9,    4.3,    4.8,    5.0,    4.5,    5.1,    4.6,    4.9,    5.6,    6.0,    6.4,    6.1,    6.2,  999.0,  999.0,    6.8,    6.5,    5.8,    6.1,    6.2,    7.0,    7.0,    7.3,  999.0,    5.9,    6.4,    5.8,    6.7,    6.6,    7.1,  999.0,  999.0,  999.0,  999.0,  999.0,    4.4,    4.8,  999.0,  999.0,  999.0,    5.2,  999.0,    5.6,    7.0,    7.6,  999.0,  999.0,  999.0,  999.0,  999.0,  999.0,  999.0,  999.0,  999.0,  999.0,  999.0,  999.0,  999.0,  999.0,  999.0,  999.0,  999.0,  999.0,  999.0,  999.0,  999.0,  999.0,  999.0,  999.0,  999.0,  999.0,  999.0,  999.0,  999.0,  999.0,  999.0,  999.0,  999.0,  999.0,  999.0,  999.0,  999.0,  999.0,  999.0,  999.0,  999.0,  999.0,  999.0,  999.0,  999.0,  999.0,  999.0,  999.0,  999.0,  999.0,  999.0
2012/01/06 01:20,  999.0,    3.2,    3.6,    3.8,    4.6,  999.0,    5.1,  999.0,    4.7,    4.4,    5.0,    5.6,    6.1,    6.7,    6.8,    6.9,    6.6,    7.2,    6.8,    6.6,    6.2,    7.0,    7.4,    7.6,    7.9,    6.8,    6.4,    7.1,    6.0,    6.7,    7.5,    7.9,  999.0,  999.0,  999.0,  999.0,  999.0,    4.3,    5.1,  999.0,  999.0,  999.0,    4.9,    5.8,    6.5,    7.1,  999.0,  999.0,  999.0,  999.0,  999.0,  999.0,  999.0,  999.0,  999.0,  999.0,  999.0,  999.0,  999.0,  999.0,  999.0,  999.0,  999.0,  999.0,  999.0,  999.0,  999.0,  999.0,  999.0,  999.0,  999.0,  999.0,  999.0,  999.0,  999.0,  999.0,  999.0,  999.0,  999.0,  999.0,  999.0,  999.0,  999.0,  999.0,  999.0,  999.0,  999.0,  999.0,  999.0,  999.0,  999.0,  999.0,  999.0,  999.0,  999.0,  999.0,  999.0,  999.0
2012/01/06 01:30,  999.0,    2.7,    3.3,    3.4,    4.3,    4.3,    4.8,    5.2,    5.5,    4.5,    4.2,    5.3,    5.2,    5.7,    6.7,    6.7,    6.3,    6.8,    6.2,    5.9,    6.3,    7.2,    7.2,    8.0,    7.7,  999.0,    6.9,    7.2,  999.0,    6.3,    7.1,    7.3,    7.5,  999.0,  999.0,  999.0,  999.0,  999.0,    5.0,  999.0,  999.0,  999.0,    5.3,  999.0,    7.4,  999.0,  999.0,  999.0,    6.3,  999.0,  999.0,  999.0,    6.3,  999.0,  999.0,  999.0,  999.0,  999.0,  999.0,  999.0,  999.0,  999.0,  999.0,  999.0,  999.0,  999.0,  999.0,  999.0,  999.0,  999.0,  999.0,  999.0,  999.0,  999.0,  999.0,  999.0,  999.0,  999.0,  999.0,  999.0,  999.0,  999.0,  999.0,  999.0,  999.0,  999.0,  999.0,  999.0,  999.0,  999.0,  999.0,  999.0,  999.0,  999.0,  999.0,  999.0,  999.0,  999.0
2012/01/06 01:40,  999.0,    2.6,    2.9,    3.4,    4.2,    4.7,    4.9,    5.5,    5.0,    5.1,    4.8,    5.0,    5.6,    5.2,    6.8,    7.4,    6.2,    6.8,  999.0,    5.9,    6.3,    7.1,    7.1,  999.0,    8.0,    6.6,    6.9,    6.6,    6.2,    6.8,  999.0,    7.5,    7.9,  999.0,  999.0,  999.0,  999.0,  999.0,  999.0,  999.0,  999.0,    4.9,    5.8,    6.9,    7.7,  999.0,  999.0,  999.0,  999.0,  999.0,  999.0,  999.0,  999.0,  999.0,  999.0,  999.0,  999.0,  999.0,  999.0,  999.0,  999.0,  999.0,  999.0,  999.0,  999.0,  999.0,  999.0,  999.0,  999.0,  999.0,  999.0,  999.0,  999.0,  999.0,  999.0,  999.0,  999.0,  999.0,  999.0,  999.0,  999.0,  999.0,  999.0,  999.0,  999.0,  999.0,  999.0,  999.0,  999.0,  999.0,  999.0,  999.0,  999.0,  999.0,  999.0,  999.0,  999.0,  999.0
2012/01/06 01:50,    2.3,    2.6,    2.7,    3.9,    4.4,    4.5,    5.2,    5.4,    5.5,    5.2,    5.2,  999.0,    5.4,    5.7,    7.0,    7.6,  999.0,    6.6,    6.4,    6.5,    6.3,    6.9,    7.0,    7.5,    6.7,    7.1,  999.0,    5.5,    5.9,    7.2,    7.4,    7.2,    7.5,  999.0,  999.0,  999.0,  999.0,  999.0,  999.0,  999.0,  999.0,  999.0,    5.9,    7.1,    7.6,    7.5,    7.3,    7.0,    5.4,    5.9,  999.0,    5.9,    6.5,  999.0,  999.0,  999.0,  999.0,  999.0,  999.0,  999.0,  999.0,  999.0,  999.0,  999.0,  999.0,  999.0,  999.0,  999.0,  999.0,  999.0,  999.0,  999.0,  999.0,  999.0,  999.0,  999.0,  999.0,  999.0,  999.0,  999.0,  999.0,  999.0,  999.0,  999.0,  999.0,  999.0,  999.0,  999.0,  999.0,  999.0,  999.0,  999.0,  999.0,  999.0,  999.0,  999.0,  999.0,  999.0
2012/01/06 02:00,    2.6,    2.7,    3.0,    3.3,    4.5,    4.7,    4.9,    5.0,    5.5,    5.4,    5.0,    4.8,    4.9,    5.0,    5.4,    6.4,    6.8,    6.6,    6.9,    6.3,    6.4,    6.3,    6.5,    6.7,    6.6,    6.6,    6.1,    5.8,    5.8,    6.6,    7.4,    6.8,  999.0,  999.0,  999.0,  999.0,  999.0,  999.0,  999.0,  999.0,  999.0,  999.0,    5.9,    7.2,    8.5,  999.0,    6.8,    6.9,    5.8,  999.0,  999.0,  999.0,  999.0,  999.0,  999.0,  999.0,  999.0,  999.0,  999.0,  999.0,  999.0,  999.0,  999.0,  999.0,  999.0,  999.0,  999.0,  999.0,  999.0,  999.0,  999.0,  999.0,  999.0,  999.0,  999.0,  999.0,  999.0,  999.0,  999.0,  999.0,  999.0,  999.0,  999.0,  999.0,  999.0,  999.0,  999.0,  999.0,  999.0,  999.0,  999.0,  999.0,  999.0,  999.0,  999.0,  999.0,  999.0,  999.0
2012/01/06 02:10,    2.5,    2.9,    2.7,    3.5,  999.0,    4.6,    4.9,    5.2,    5.3,    5.7,    5.5,    5.1,    5.0,  999.0,    5.8,    6.7,    7.0,    7.2,    6.8,    6.6,    7.0,    6.8,    6.3,    6.3,    6.4,    6.9,  999.0,    6.0,    6.3,    6.7,    7.2,    7.4,    7.5,  999.0,  999.0,  999.0,  999.0,  999.0,  999.0,  999.0,  999.0,    7.0,    5.8,    6.8,    8.4,  999.0,    6.7,    6.8,    5.7,    5.6,  999.0,    6.3,  999.0,  999.0,  999.0,  999.0,  999.0,  999.0,  999.0,  999.0,  999.0,  999.0,  999.0,  999.0,  999.0,  999.0,  999.0,  999.0,  999.0,  999.0,  999.0,  999.0,  999.0,  999.0,  999.0,  999.0,  999.0,  999.0,  999.0,  999.0,  999.0,  999.0,  999.0,  999.0,  999.0,  999.0,  999.0,  999.0,  999.0,  999.0,  999.0,  999.0,  999.0,  999.0,  999.0,  999.0,  999.0,  999.0
2012/01/06 02:20,    2.2,    2.7,    2.8,    3.7,    4.3,    4.3,    5.3,    5.4,    5.5,    5.6,    5.7,    5.6,    5.7,    5.6,    6.1,    6.5,    7.0,    7.0,    6.7,  999.0,    6.3,    6.2,    5.8,    6.0,    6.3,    6.8,  999.0,  999.0,    6.0,    6.4,    7.0,    7.0,  999.0,  999.0,  999.0,  999.0,  999.0,  999.0,  999.0,  999.0,  999.0,    6.5,    5.8,    6.9,    8.1,  999.0,    6.4,    6.5,  999.0,    5.7,  999.0,  999.0,    5.5,    5.0,    5.0,  999.0,    5.6,    5.9,  999.0,  999.0,  999.0,  999.0,  999.0,  999.0,  999.0,  999.0,  999.0,  999.0,  999.0,  999.0,  999.0,  999.0,  999.0,  999.0,  999.0,  999.0,  999.0,  999.0,  999.0,  999.0,  999.0,  999.0,  999.0,  999.0,  999.0,  999.0,  999.0,  999.0,  999.0,  999.0,  999.0,  999.0,  999.0,  999.0,  999.0,  999.0,  999.0,  999.0
2012/01/06 02:30,    2.3,    2.8,    3.1,    3.8,    3.8,    4.7,    5.4,    6.0,    5.5,    5.0,    5.4,    5.5,    5.9,    6.2,    5.6,    6.5,    6.9,    7.2,    7.1,  999.0,    6.1,    6.1,    6.1,  999.0,    6.3,    6.3,    6.5,    6.9,    6.0,    6.6,    7.1,    6.3,    6.3,  999.0,  999.0,  999.0,  999.0,  999.0,  999.0,    5.4,  999.0,  999.0,    6.2,  999.0,  999.0,  999.0,    6.1,    6.4,    5.8,  999.0,    6.5,    5.5,    5.0,    5.0,    5.4,    5.3,    5.8,    6.0,  999.0,  999.0,  999.0,  999.0,  999.0,  999.0,  999.0,  999.0,  999.0,  999.0,  999.0,  999.0,  999.0,  999.0,  999.0,  999.0,  999.0,  999.0,  999.0,  999.0,  999.0,  999.0,  999.0,  999.0,  999.0,  999.0,  999.0,  999.0,  999.0,  999.0,  999.0,  999.0,  999.0,  999.0,  999.0,  999.0,  999.0,  999.0,  999.0,  999.0
2012/01/06 02:40,    2.4,    2.0,    2.6,    3.2,    4.5,    4.0,  999.0,    5.9,  999.0,    5.8,    4.8,    5.3,    6.0,    6.2,    6.0,    6.5,    7.1,    7.3,  999.0,  999.0,  999.0,  999.0,  999.0,  999.0,    6.2,  999.0,    6.8,  999.0,  999.0,    6.6,    7.2,  999.0,  999.0,  999.0,  999.0,  999.0,  999.0,  999.0,  999.0,    5.7,  999.0,    6.9,    6.6,  999.0,  999.0,  999.0,  999.0,    6.0,  999.0,    5.5,  999.0,    4.5,    4.7,    5.2,    5.7,    6.3,    6.4,    6.4,  999.0,  999.0,  999.0,  999.0,  999.0,  999.0,  999.0,  999.0,  999.0,  999.0,  999.0,  999.0,  999.0,  999.0,  999.0,  999.0,  999.0,  999.0,  999.0,  999.0,  999.0,  999.0,  999.0,  999.0,  999.0,  999.0,  999.0,  999.0,  999.0,  999.0,  999.0,  999.0,  999.0,  999.0,  999.0,  999.0,  999.0,  999.0,  999.0,  999.0
2012/01/06 02:50,   -0.2,    2.7,   -1.3,   -1.5,   -3.2,   -1.0,   -4.4,   -1.7,   -0.8,    0.1,    5.7,    5.1,    5.6,    5.8,    5.8,    5.4,    5.7,    5.9,    6.0,    6.2,    5.4,    5.2,    5.8,    5.2,    4.6,    5.9,    5.8,    5.5,    4.5,    5.9,    6.1,    3.9,    5.4,    5.0,    3.7,  999.0,  999.0,  999.0,  999.0,  999.0,    5.8,    6.2,  999.0,  999.0,  999.0,    7.3,    6.7,    6.3,    6.3,    5.9,    5.7,    5.1,    5.2,    5.1,    5.1,    5.6,    5.9,  999.0,  999.0,  999.0,  999.0,  999.0,  999.0,  999.0,  999.0,  999.0,  999.0,  999.0,  999.0,  999.0,  999.0,  999.0,  999.0,  999.0,  999.0,  999.0,  999.0,  999.0,  999.0,  999.0,  999.0,  999.0,  999.0,  999.0,  999.0,  999.0,  999.0,  999.0,  999.0,  999.0,  999.0,  999.0,  999.0,  999.0,  999.0,  999.0,  999.0,  999.0
2012/01/06 03:00,    2.9,    2.6,    3.0,    0.9,    2.0,    3.9,    5.4,    5.1,    4.4,    5.5,    6.0,    5.8,    6.3,    7.2,    7.2,    6.9,    6.2,    7.7,    8.7,    8.2,    7.2,    6.6,    6.9,    7.6,    7.5,    7.1,    6.7,    6.4,    6.0,    6.8,    6.2,    6.8,    7.6,    8.7,    7.9,    7.9,    7.1,    7.5,    7.7,    6.7,    7.1,  999.0,  999.0,  999.0,  999.0,    7.2,    5.7,    5.4,    4.9,    4.2,    4.3,    4.6,    4.7,    4.7,    5.0,    4.8,  999.0,  999.0,  999.0,  999.0,  999.0,  999.0,  999.0,  999.0,  999.0,  999.0,  999.0,  999.0,  999.0,  999.0,  999.0,  999.0,  999.0,  999.0,  999.0,  999.0,  999.0,  999.0,  999.0,  999.0,  999.0,  999.0,  999.0,  999.0,  999.0,  999.0,  999.0,  999.0,  999.0,  999.0,  999.0,  999.0,  999.0,  999.0,  999.0,  999.0,  999.0,  999.0
2012/01/06 03:10,    2.4,   -0.5,   -2.2,    3.3,    3.1,   -0.2,    3.0,    2.0,    3.1,    1.9,    4.3,    4.1,    5.4,    6.2,    4.5,    4.8,    4.2,    4.2,    4.5,    4.3,    4.0,    3.5,    3.5,    6.1,   -0.1,    3.0,    7.3,    6.4,    6.8,    4.4,    3.3,    5.4,    9.4,  999.0,    9.6,    8.8,    7.8,  999.0,  999.0,  999.0,  999.0,  999.0,  999.0,  999.0,  999.0,  999.0,  999.0,  999.0,  999.0,  999.0,  999.0,  999.0,  999.0,  999.0,  999.0,  999.0,  999.0,  999.0,  999.0,  999.0,  999.0,  999.0,  999.0,  999.0,  999.0,  999.0,  999.0,  999.0,  999.0,  999.0,  999.0,  999.0,  999.0,  999.0,  999.0,  999.0,  999.0,  999.0,  999.0,  999.0,  999.0,  999.0,  999.0,  999.0,  999.0,  999.0,  999.0,  999.0,  999.0,  999.0,  999.0,  999.0,  999.0,  999.0,  999.0,  999.0,  999.0,  999.0
2012/01/06 03:20,  999.0,    3.1,  999.0,    3.7,  999.0,  999.0,    6.5,    6.4,    5.4,    5.6,    5.5,    5.6,    6.1,    6.9,    6.8,    6.7,    7.2,  999.0,  999.0,  999.0,  999.0,  999.0,  999.0,  999.0,  999.0,  999.0,  999.0,    6.2,    6.7,  999.0,    6.4,    6.0,  999.0,  999.0,  999.0,  999.0,  999.0,  999.0,  999.0,  999.0,  999.0,    6.2,    6.1,    6.8,    9.1,    9.3,  999.0,    5.5,  999.0,  999.0,  999.0,  999.0,  999.0,  999.0,  999.0,  999.0,  999.0,  999.0,  999.0,  999.0,  999.0,  999.0,  999.0,  999.0,  999.0,  999.0,  999.0,  999.0,  999.0,  999.0,  999.0,  999.0,  999.0,  999.0,  999.0,  999.0,  999.0,  999.0,  999.0,  999.0,  999.0,  999.0,  999.0,  999.0,  999.0,  999.0,  999.0,  999.0,  999.0,  999.0,  999.0,  999.0,  999.0,  999.0,  999.0,  999.0,  999.0,  999.0
2012/01/06 03:30,  999.0,  999.0,    2.4,  999.0,    4.0,    5.4,  999.0,  999.0,    5.2,    5.3,    6.0,    6.1,    6.0,    6.5,    7.1,    7.2,    7.4,    7.7,    7.9,    7.3,  999.0,    6.1,    6.8,  999.0,  999.0,  999.0,    6.3,    6.7,    6.2,    6.4,    6.0,    6.3,    6.9,    6.5,    7.1,    7.2,  999.0,  999.0,  999.0,  999.0,    6.0,    6.4,    6.5,    7.5,    8.7,  999.0,  999.0,    6.4,    5.0,    4.9,    4.8,    5.0,    5.1,    4.7,    4.7,    4.7,    4.5,    4.7,    5.0,  999.0,  999.0,  999.0,  999.0,  999.0,  999.0,  999.0,  999.0,  999.0,  999.0,  999.0,  999.0,  999.0,  999.0,  999.0,  999.0,  999.0,  999.0,  999.0,  999.0,  999.0,  999.0,  999.0,  999.0,  999.0,  999.0,  999.0,  999.0,  999.0,  999.0,  999.0,  999.0,  999.0,  999.0,  999.0,  999.0,  999.0,  999.0,  999.0
2012/01/06 03:40,  999.0,    2.3,    2.7,  999.0,  999.0,    5.6,  999.0,  999.0,    6.2,    5.2,    5.7,    6.6,    6.5,    6.3,    7.3,    7.5,    7.4,  999.0,  999.0,  999.0,  999.0,    7.5,    6.4,    6.6,    6.7,    6.4,    7.0,  999.0,    6.4,    6.9,    6.2,    6.4,    6.9,    7.7,    7.5,  999.0,  999.0,  999.0,  999.0,    5.4,    6.5,    6.8,    7.0,    7.5,    9.1,  999.0,  999.0,  999.0,  999.0,  999.0,  999.0,  999.0,    3.7,    4.0,  999.0,    5.5,    5.8,    5.6,  999.0,  999.0,  999.0,  999.0,  999.0,  999.0,  999.0,  999.0,  999.0,  999.0,  999.0,  999.0,  999.0,  999.0,  999.0,  999.0,  999.0,  999.0,  999.0,  999.0,  999.0,  999.0,  999.0,  999.0,  999.0,  999.0,  999.0,  999.0,  999.0,  999.0,  999.0,  999.0,  999.0,  999.0,  999.0,  999.0,  999.0,  999.0,  999.0,  999.0
2012/01/06 03:50,  999.0,  999.0,  999.0,    2.2,  999.0,  999.0,  999.0,  999.0,  999.0,    6.0,    5.7,    6.1,    6.2,    6.3,    6.6,    6.8,    7.3,  999.0,  999.0,  999.0,  999.0,  999.0,    6.6,    6.7,    5.9,    6.8,  999.0,  999.0,  999.0,    6.7,  999.0,    6.3,    7.2,    8.2,    8.0,    8.1,  999.0,  999.0,    5.7,    6.2,  999.0,    7.1,    7.4,    7.1,    8.0,  999.0,  999.0,  999.0,  999.0,  999.0,  999.0,  999.0,  999.0,  999.0,  999.0,  999.0,  999.0,  999.0,  999.0,  999.0,  999.0,  999.0,  999.0,  999.0,  999.0,  999.0,  999.0,  999.0,  999.0,  999.0,  999.0,  999.0,  999.0,  999.0,  999.0,  999.0,  999.0,  999.0,  999.0,  999.0,  999.0,  999.0,  999.0,  999.0,  999.0,  999.0,  999.0,  999.0,  999.0,  999.0,  999.0,  999.0,  999.0,  999.0,  999.0,  999.0,  999.0,  999.0
2012/01/06 04:00,  999.0,  999.0,  999.0,    2.6,  999.0,    4.6,  999.0,    6.9,    6.7,    6.6,    6.4,    6.9,    6.1,    6.7,    7.0,    6.6,    7.3,    7.5,  999.0,  999.0,  999.0,  999.0,  999.0,  999.0,    6.1,    5.9,    6.8,  999.0,  999.0,    6.7,  999.0,    6.4,  999.0,  999.0,  999.0,    8.0,  999.0,  999.0,  999.0,    5.5,    6.3,    6.9,    6.8,    6.7,    7.5,  999.0,  999.0,  999.0,  999.0,  999.0,  999.0,  999.0,  999.0,  999.0,  999.0,  999.0,  999.0,  999.0,  999.0,  999.0,  999.0,  999.0,  999.0,  999.0,  999.0,  999.0,  999.0,  999.0,  999.0,  999.0,  999.0,  999.0,  999.0,  999.0,  999.0,  999.0,  999.0,  999.0,  999.0,  999.0,  999.0,  999.0,  999.0,  999.0,  999.0,  999.0,  999.0,  999.0,  999.0,  999.0,  999.0,  999.0,  999.0,  999.0,  999.0,  999.0,  999.0,  999.0
2012/01/06 04:10,    1.7,    2.4,    2.5,    3.3,    3.0,    4.5,    5.8,    6.7,    6.9,    6.3,    6.2,    5.7,    6.3,    6.9,    7.2,    6.8,    7.4,    7.1,    7.7,  999.0,  999.0,  999.0,  999.0,  999.0,  999.0,    5.9,    6.7,  999.0,    6.9,    7.2,    6.6,    6.8,  999.0,  999.0,    7.2,  999.0,  999.0,    7.3,    6.5,    5.5,    5.6,    6.4,    7.0,    7.4,    7.4,    8.1,  999.0,  999.0,  999.0,  999.0,  999.0,  999.0,  999.0,  999.0,  999.0,  999.0,  999.0,  999.0,  999.0,  999.0,  999.0,  999.0,  999.0,  999.0,  999.0,  999.0,  999.0,  999.0,  999.0,  999.0,  999.0,  999.0,  999.0,  999.0,  999.0,  999.0,  999.0,  999.0,  999.0,  999.0,  999.0,  999.0,  999.0,  999.0,  999.0,  999.0,  999.0,  999.0,  999.0,  999.0,  999.0,  999.0,  999.0,  999.0,  999.0,  999.0,  999.0,  999.0
2012/01/06 04:20,    1.6,    2.0,    1.5,    2.6,    3.6,    4.8,    5.9,    6.9,    7.0,    6.5,    6.2,    5.9,    6.0,    6.7,    7.0,    6.8,    7.0,  999.0,    8.1,  999.0,  999.0,  999.0,  999.0,    7.8,  999.0,  999.0,    6.2,  999.0,  999.0,  999.0,    6.3,    6.9,  999.0,  999.0,  999.0,    6.1,  999.0,  999.0,    5.6,    5.3,    5.3,    6.1,    6.9,    7.5,    7.3,  999.0,  999.0,  999.0,  999.0,  999.0,    3.8,    3.9,    3.6,    3.7,    3.1,    4.1,  999.0,  999.0,  999.0,  999.0,  999.0,  999.0,  999.0,  999.0,  999.0,  999.0,  999.0,  999.0,  999.0,  999.0,  999.0,  999.0,  999.0,  999.0,  999.0,  999.0,  999.0,  999.0,  999.0,  999.0,  999.0,  999.0,  999.0,  999.0,  999.0,  999.0,  999.0,  999.0,  999.0,  999.0,  999.0,  999.0,  999.0,  999.0,  999.0,  999.0,  999.0,  999.0
2012/01/06 04:30,    1.9,  999.0,    2.0,    2.6,    3.9,    5.6,    5.7,    4.5,    4.9,    6.2,    4.5,    4.8,    4.7,  999.0,    6.3,    7.4,    7.1,    7.6,    7.7,    9.3,  999.0,  999.0,  999.0,    7.6,  999.0,  999.0,  999.0,  999.0,  999.0,  999.0,    6.8,    6.5,    6.5,  999.0,    5.9,    6.0,    6.3,    6.6,    6.3,    5.9,    5.2,    5.2,    6.0,    9.4,  999.0,  999.0,  999.0,    6.0,  999.0,  999.0,    4.4,    4.4,  999.0,  999.0,    5.7,  999.0,  999.0,  999.0,  999.0,  999.0,  999.0,  999.0,  999.0,  999.0,  999.0,  999.0,  999.0,  999.0,  999.0,  999.0,  999.0,  999.0,  999.0,  999.0,  999.0,  999.0,  999.0,  999.0,  999.0,  999.0,  999.0,  999.0,  999.0,  999.0,  999.0,  999.0,  999.0,  999.0,  999.0,  999.0,  999.0,  999.0,  999.0,  999.0,  999.0,  999.0,  999.0,  999.0
2012/01/06 04:40,    4.5,    5.0,    2.2,    3.0,    6.4,    6.1,    4.6,    7.1,    5.8,    9.4,    7.5,    7.2,    5.9,    5.6,    3.7,    4.0,    4.1,    6.5,    4.4,    6.6,    5.0,    5.5,    5.3,    8.8,    5.1,    3.8,    5.1,    5.3,    6.2,    3.8,    3.8,   -3.9,   -5.0,    1.9,    3.7,    2.1,    2.2,    5.1,    3.0,    4.9,    4.7,  999.0,  999.0,  999.0,    6.3,  999.0,    7.0,    6.6,    5.5,    6.9,    6.8,    6.0,    5.6,    6.3,    6.5,    6.2,    5.4,    5.4,  999.0,  999.0,  999.0,    4.5,  999.0,  999.0,  999.0,  999.0,  999.0,  999.0,  999.0,  999.0,  999.0,  999.0,  999.0,  999.0,  999.0,  999.0,  999.0,  999.0,  999.0,  999.0,  999.0,  999.0,  999.0,  999.0,  999.0,  999.0,  999.0,  999.0,  999.0,  999.0,  999.0,  999.0,  999.0,  999.0,  999.0,  999.0,  999.0,  999.0
2012/01/06 04:50,    3.4,   -3.3,   -3.9,   -0.3,  999.0,   -2.4,   -0.1,   -0.7,    4.5,   -1.9,    0.8,    2.3,    2.3,   -1.8,    0.7,    1.4,    1.5,    2.0,  999.0,  999.0,  999.0,  999.0,  999.0,  999.0,  999.0,  999.0,  999.0,  999.0,  999.0,    3.0,  999.0,  999.0,  999.0,    4.9,    3.1,  999.0,  999.0,    2.6,    2.9,    5.1,    2.3,    6.1,  999.0,  999.0,  999.0,  999.0,    6.6,    5.9,    6.1,    5.9,    5.7,    6.1,    5.3,    5.1,    4.5,    4.4,    4.4,    4.6,    4.5,    4.9,    4.7,  999.0,  999.0,  999.0,  999.0,  999.0,  999.0,  999.0,  999.0,  999.0,  999.0,  999.0,  999.0,  999.0,  999.0,  999.0,  999.0,  999.0,  999.0,  999.0,  999.0,  999.0,  999.0,  999.0,  999.0,  999.0,  999.0,  999.0,  999.0,  999.0,  999.0,  999.0,  999.0,  999.0,  999.0,  999.0,  999.0,  999.0
2012/01/06 05:00,   -5.4,   -5.0,   -3.2,   -5.2,   -7.8,   -8.0,   -7.2,   -3.0,   -2.5,   -6.0,   -3.3,    0.2,    1.0,  999.0,  999.0,    1.6,   -5.3,    5.7,   -3.6,    8.1,  999.0,  999.0,  999.0,   10.1,    9.5,    8.9,    9.5,   10.0,   10.3,   10.6,   10.9,   10.6,   10.3,   10.3,    9.7,    9.2,  999.0,  999.0,  -11.9,  999.0,  999.0,  999.0,   -0.3,    3.0,  999.0,    6.0,    6.7,    6.9,    6.4,    7.0,    6.0,  999.0,  999.0,    5.9,    6.4,    6.0,    5.3,    5.0,    4.8,    4.5,    4.5,    5.1,  999.0,  999.0,  999.0,  999.0,  999.0,  999.0,  999.0,  999.0,  999.0,  999.0,  999.0,  999.0,  999.0,  999.0,  999.0,  999.0,  999.0,  999.0,  999.0,  999.0,  999.0,  999.0,  999.0,  999.0,  999.0,  999.0,  999.0,  999.0,  999.0,  999.0,  999.0,  999.0,  999.0,  999.0,  999.0,  999.0
2012/01/06 05:10,  999.0,  999.0,  999.0,    3.3,  999.0,  999.0,  999.0,    6.0,    6.7,    7.5,    7.7,    6.8,    6.6,    6.5,    6.9,    6.9,    7.3,    7.2,    7.1,  999.0,  999.0,    7.6,  999.0,  999.0,  999.0,  999.0,  999.0,    6.7,  999.0,  999.0,  999.0,  999.0,  999.0,    5.7,    6.5,  999.0,  999.0,    2.5,    4.6,  999.0,  999.0,  999.0,  999.0,  999.0,  999.0,    5.7,    6.0,  999.0,  999.0,  999.0,  999.0,  999.0,    4.0,  999.0,  999.0,  999.0,  999.0,  999.0,  999.0,  999.0,  999.0,  999.0,  999.0,  999.0,  999.0,  999.0,  999.0,  999.0,  999.0,  999.0,  999.0,  999.0,  999.0,  999.0,  999.0,  999.0,  999.0,  999.0,  999.0,  999.0,  999.0,  999.0,  999.0,  999.0,  999.0,  999.0,  999.0,  999.0,  999.0,  999.0,  999.0,  999.0,  999.0,  999.0,  999.0,  999.0,  999.0,  999.0
2012/01/06 05:20,  999.0,  999.0,  999.0,  999.0,  999.0,  999.0,  999.0,  999.0,    6.6,    7.6,    7.7,    7.3,    6.8,    6.2,    6.6,    7.1,    7.7,    7.7,    7.1,  999.0,  999.0,  999.0,  999.0,  999.0,  999.0,    6.3,    6.7,    6.7,    7.3,  999.0,  999.0,  999.0,  999.0,  999.0,    6.4,  999.0,  999.0,  999.0,    6.1,    6.8,  999.0,  999.0,  999.0,  999.0,  999.0,  999.0,  999.0,  999.0,  999.0,  999.0,  999.0,    4.2,    3.6,    3.7,  999.0,  999.0,  999.0,  999.0,  999.0,  999.0,  999.0,  999.0,  999.0,  999.0,  999.0,  999.0,  999.0,  999.0,  999.0,  999.0,  999.0,  999.0,  999.0,  999.0,  999.0,  999.0,  999.0,  999.0,  999.0,  999.0,  999.0,  999.0,  999.0,  999.0,  999.0,  999.0,  999.0,  999.0,  999.0,  999.0,  999.0,  999.0,  999.0,  999.0,  999.0,  999.0,  999.0,  999.0
2012/01/06 05:30,  999.0,  999.0,  999.0,  999.0,  999.0,  999.0,    4.6,    5.0,    5.7,    7.0,    7.9,    7.5,    7.4,    6.3,    6.2,    6.4,    7.5,    7.3,    7.4,    6.6,  999.0,    7.2,    7.6,    7.8,    6.9,    6.0,    6.3,    6.5,  999.0,  999.0,    6.2,    6.7,  999.0,  999.0,  999.0,  999.0,  999.0,  999.0,    6.6,  999.0,    6.2,    6.9,    6.5,    5.9,    5.9,    6.2,    6.1,    6.2,    6.2,    5.8,    5.6,    4.6,    3.8,    2.7,  999.0,  999.0,  999.0,  999.0,  999.0,    4.5,  999.0,  999.0,  999.0,  999.0,  999.0,  999.0,  999.0,  999.0,  999.0,  999.0,  999.0,  999.0,  999.0,  999.0,  999.0,  999.0,  999.0,  999.0,  999.0,  999.0,  999.0,  999.0,  999.0,  999.0,  999.0,  999.0,  999.0,  999.0,  999.0,  999.0,  999.0,  999.0,  999.0,  999.0,  999.0,  999.0,  999.0,  999.0
2012/01/06 05:40,  999.0,  999.0,  999.0,  999.0,    3.2,    3.3,    4.1,    4.8,    5.9,    6.2,    7.2,    7.6,    7.4,    6.4,    6.5,    6.1,    6.8,    7.1,    6.9,    7.0,    6.4,    7.1,    7.3,    7.7,  999.0,    6.0,    6.2,    5.8,    6.6,    6.6,    5.9,    6.6,  999.0,  999.0,  999.0,  999.0,  999.0,    6.1,    7.3,    5.5,    6.1,    6.5,    6.3,    6.5,    6.4,    6.0,    6.0,    6.4,    6.9,    6.4,    5.6,    5.1,    3.6,  999.0,  999.0,  999.0,  999.0,  999.0,  999.0,  999.0,    4.8,  999.0,  999.0,  999.0,  999.0,  999.0,  999.0,  999.0,  999.0,  999.0,  999.0,  999.0,  999.0,  999.0,  999.0,  999.0,  999.0,  999.0,  999.0,  999.0,  999.0,  999.0,  999.0,  999.0,  999.0,  999.0,  999.0,  999.0,  999.0,  999.0,  999.0,  999.0,  999.0,  999.0,  999.0,  999.0,  999.0,  999.0
2012/01/06 05:50,  999.0,    5.3,  999.0,  999.0,    4.2,    3.3,    4.8,  999.0,    5.4,    6.2,    6.8,    7.5,    7.6,    7.4,    6.6,    6.5,    6.6,    7.0,    7.4,    6.6,    6.4,    7.7,    7.3,  999.0,    6.7,    6.3,    6.8,  999.0,    6.8,    6.7,    6.1,    5.9,    6.5,  999.0,  999.0,  999.0,  999.0,  999.0,  999.0,    5.8,    5.5,    6.1,    6.7,    6.6,    7.4,    6.4,    5.6,    5.7,    6.0,    5.6,    5.1,    4.5,    4.4,    4.1,    3.6,  999.0,  999.0,  999.0,  999.0,  999.0,    4.5,  999.0,  999.0,  999.0,  999.0,  999.0,  999.0,  999.0,  999.0,  999.0,  999.0,  999.0,  999.0,  999.0,  999.0,  999.0,  999.0,  999.0,  999.0,  999.0,  999.0,  999.0,  999.0,  999.0,  999.0,  999.0,  999.0,  999.0,  999.0,  999.0,  999.0,  999.0,  999.0,  999.0,  999.0,  999.0,  999.0,  999.0
2012/01/06 06:00,  999.0,  999.0,  999.0,    1.5,    2.9,    3.2,    4.0,    4.5,    5.0,    5.4,    6.5,    7.7,    7.4,    7.0,    6.3,    6.2,    6.9,    7.0,    7.2,  999.0,  999.0,  999.0,  999.0,  999.0,    6.6,    6.3,    7.1,  999.0,    6.9,    6.2,    6.5,    6.2,    6.4,    6.3,  999.0,  999.0,  999.0,  999.0,  999.0,  999.0,    5.5,    6.3,    7.3,    8.1,    7.8,    7.4,    7.0,  999.0,  999.0,  999.0,  999.0,  999.0,  999.0,  999.0,  999.0,  999.0,  999.0,  999.0,  999.0,  999.0,    4.6,  999.0,  999.0,  999.0,  999.0,  999.0,  999.0,  999.0,  999.0,  999.0,  999.0,  999.0,  999.0,  999.0,  999.0,  999.0,  999.0,  999.0,  999.0,  999.0,  999.0,  999.0,  999.0,  999.0,  999.0,  999.0,  999.0,  999.0,  999.0,  999.0,  999.0,  999.0,  999.0,  999.0,  999.0,  999.0,  999.0,  999.0
2012/01/06 06:10,  999.0,    0.5,    0.3,    1.8,    3.1,    3.2,    3.5,    4.1,    5.5,    5.4,    6.4,    7.4,    7.0,    6.7,    6.5,    6.4,    7.0,    7.1,    6.9,    7.2,  999.0,    8.0,    8.0,    8.0,  999.0,    6.8,    7.6,  999.0,    6.5,    6.5,    6.5,  999.0,  999.0,  999.0,  999.0,  999.0,  999.0,  999.0,  999.0,  999.0,    5.7,    6.6,    7.8,    8.2,    8.2,    7.9,    7.1,    7.7,  999.0,  999.0,  999.0,  999.0,  999.0,  999.0,  999.0,  999.0,  999.0,  999.0,  999.0,  999.0,    4.2,  999.0,  999.0,  999.0,  999.0,  999.0,  999.0,  999.0,  999.0,  999.0,  999.0,  999.0,  999.0,  999.0,  999.0,  999.0,  999.0,  999.0,  999.0,  999.0,  999.0,  999.0,  999.0,  999.0,  999.0,  999.0,  999.0,  999.0,  999.0,  999.0,  999.0,  999.0,  999.0,  999.0,  999.0,  999.0,  999.0,  999.0
2012/01/06 06:20,    0.9,    0.5,    0.9,    1.6,    2.3,    3.4,    3.7,    4.5,    4.9,    5.4,    6.7,    7.3,    6.8,    6.4,    6.1,    6.7,    7.1,    7.0,    6.8,  999.0,  999.0,  999.0,  999.0,    7.4,  999.0,    6.2,  999.0,  999.0,  999.0,    5.9,    5.7,    5.3,  999.0,  999.0,  999.0,  999.0,  999.0,  999.0,  999.0,  999.0,    5.8,    6.7,    8.0,    8.4,    7.9,    8.2,    7.1,    7.2,    5.2,    4.6,  999.0,  999.0,  999.0,  999.0,    3.2,  999.0,  999.0,  999.0,  999.0,  999.0,    4.2,    4.6,  999.0,  999.0,  999.0,  999.0,  999.0,  999.0,  999.0,  999.0,  999.0,  999.0,  999.0,  999.0,  999.0,  999.0,  999.0,  999.0,  999.0,  999.0,  999.0,  999.0,  999.0,  999.0,  999.0,  999.0,  999.0,  999.0,  999.0,  999.0,  999.0,  999.0,  999.0,  999.0,  999.0,  999.0,  999.0,  999.0
2012/01/06 06:30,    0.0,    0.1,    0.7,    1.2,    2.0,    3.2,    3.7,    4.5,    5.0,    5.7,    6.7,    7.4,    6.6,    5.8,    6.2,    6.8,    6.8,    6.6,    6.5,  999.0,  999.0,  999.0,  999.0,    7.1,  999.0,  999.0,  999.0,  999.0,  999.0,  999.0,    4.9,    5.2,    5.8,  999.0,    5.5,  999.0,  999.0,  999.0,  999.0,  999.0,    6.1,    6.6,    7.6,  999.0,  999.0,  999.0,    6.2,    6.5,    4.5,    4.1,  999.0,  999.0,  999.0,  999.0,  999.0,    3.7,  999.0,  999.0,  999.0,  999.0,  999.0,    4.9,  999.0,  999.0,  999.0,  999.0,  999.0,  999.0,  999.0,  999.0,  999.0,  999.0,  999.0,  999.0,  999.0,  999.0,  999.0,  999.0,  999.0,  999.0,  999.0,  999.0,  999.0,  999.0,  999.0,  999.0,  999.0,  999.0,  999.0,  999.0,  999.0,  999.0,  999.0,  999.0,  999.0,  999.0,  999.0,  999.0
2012/01/06 06:40,  999.0,    0.2,    0.4,    0.9,    1.8,    2.8,    3.7,    4.6,    4.4,    5.4,    6.0,    6.6,    7.0,    5.7,    5.4,    6.2,    6.5,    6.3,    6.2,    6.6,  999.0,    7.3,  999.0,    6.6,  999.0,  999.0,  999.0,  999.0,    5.7,    5.2,    5.5,    5.2,  999.0,  999.0,  999.0,  999.0,  999.0,  999.0,  999.0,  999.0,    6.0,    6.5,  999.0,  999.0,    7.9,  999.0,  999.0,    5.8,    4.3,  999.0,  999.0,  999.0,  999.0,  999.0,  999.0,  999.0,  999.0,  999.0,  999.0,  999.0,  999.0,    5.0,  999.0,  999.0,  999.0,  999.0,  999.0,  999.0,  999.0,  999.0,  999.0,  999.0,  999.0,  999.0,  999.0,  999.0,  999.0,  999.0,  999.0,  999.0,  999.0,  999.0,  999.0,  999.0,  999.0,  999.0,  999.0,  999.0,  999.0,  999.0,  999.0,  999.0,  999.0,  999.0,  999.0,  999.0,  999.0,  999.0
2012/01/06 06:50,  999.0,    0.2,    0.8,    0.9,    1.8,    2.2,    3.6,    4.4,    4.8,    4.9,    5.6,    6.0,    6.5,    6.6,    5.1,    5.1,    6.2,    6.5,    6.4,  999.0,  999.0,    6.6,    6.4,  999.0,    5.3,  999.0,  999.0,  999.0,    5.4,    5.6,    5.3,  999.0,  999.0,  999.0,    6.2,    7.3,    6.6,  999.0,  999.0,  999.0,    6.4,    7.2,  999.0,  999.0,    8.2,  999.0,  999.0,  999.0,  999.0,  999.0,  999.0,  999.0,  999.0,  999.0,  999.0,  999.0,    4.6,  999.0,  999.0,  999.0,  999.0,  999.0,    5.2,  999.0,  999.0,  999.0,  999.0,  999.0,  999.0,  999.0,  999.0,  999.0,  999.0,  999.0,  999.0,  999.0,  999.0,  999.0,  999.0,  999.0,  999.0,  999.0,  999.0,  999.0,  999.0,  999.0,  999.0,  999.0,  999.0,  999.0,  999.0,  999.0,  999.0,  999.0,  999.0,  999.0,  999.0,  999.0
2012/01/06 07:00,   -0.1,   -0.2,    0.3,    0.8,    1.4,    2.3,    3.2,    3.2,    4.4,    4.7,    5.2,    5.7,    6.4,    6.0,    5.4,    4.7,    5.3,    5.7,    6.1,  999.0,    5.7,    6.3,  999.0,  999.0,  999.0,  999.0,  999.0,    5.2,    5.9,  999.0,  999.0,  999.0,  999.0,  999.0,    6.0,    7.1,  999.0,  999.0,  999.0,  999.0,    6.6,    7.3,  999.0,    7.4,    7.6,  999.0,  999.0,  999.0,  999.0,  999.0,  999.0,  999.0,  999.0,  999.0,  999.0,  999.0,  999.0,    5.7,  999.0,  999.0,  999.0,  999.0,    5.8,  999.0,  999.0,  999.0,  999.0,  999.0,  999.0,  999.0,  999.0,  999.0,  999.0,  999.0,  999.0,  999.0,  999.0,  999.0,  999.0,  999.0,  999.0,  999.0,  999.0,  999.0,  999.0,  999.0,  999.0,  999.0,  999.0,  999.0,  999.0,  999.0,  999.0,  999.0,  999.0,  999.0,  999.0,  999.0
2012/01/06 07:10,  999.0,  999.0,  999.0,  999.0,  999.0,    2.6,    2.9,    3.2,    3.9,    4.6,    4.9,    5.6,    6.3,    6.7,    5.8,    4.9,    5.0,    5.4,    6.0,    6.3,  999.0,    6.6,    7.0,  999.0,  999.0,    6.3,  999.0,  999.0,    6.1,  999.0,  999.0,  999.0,  999.0,  999.0,  999.0,    6.7,    7.1,  999.0,  999.0,  999.0,    6.1,    7.0,    8.0,    8.0,    6.8,    7.2,  999.0,  999.0,  999.0,  999.0,  999.0,  999.0,  999.0,  999.0,  999.0,  999.0,  999.0,    5.4,  999.0,  999.0,  999.0,  999.0,    6.1,  999.0,  999.0,  999.0,  999.0,  999.0,  999.0,  999.0,  999.0,  999.0,  999.0,  999.0,  999.0,  999.0,  999.0,  999.0,  999.0,  999.0,  999.0,  999.0,  999.0,  999.0,  999.0,  999.0,  999.0,  999.0,  999.0,  999.0,  999.0,  999.0,  999.0,  999.0,  999.0,  999.0,  999.0,  999.0
2012/01/06 07:20,    2.8,  999.0,  999.0,  999.0,  999.0,  999.0,    1.5,    2.7,    2.9,    3.7,    4.4,    5.1,    5.9,    5.9,    6.2,    5.4,    5.0,    5.2,    5.4,    5.9,  999.0,    5.5,    6.1,  999.0,  999.0,  999.0,    5.5,  999.0,  999.0,  999.0,  999.0,  999.0,  999.0,  999.0,    5.3,    6.2,  999.0,  999.0,  999.0,  999.0,    6.8,    7.6,    8.2,    8.1,    8.9,  999.0,  999.0,  999.0,  999.0,  999.0,  999.0,  999.0,  999.0,  999.0,    3.0,    3.5,    4.3,    4.9,    4.0,  999.0,  999.0,    5.0,  999.0,  999.0,  999.0,  999.0,  999.0,  999.0,  999.0,  999.0,  999.0,  999.0,  999.0,  999.0,  999.0,  999.0,  999.0,  999.0,  999.0,  999.0,  999.0,  999.0,  999.0,  999.0,  999.0,  999.0,  999.0,  999.0,  999.0,  999.0,  999.0,  999.0,  999.0,  999.0,  999.0,  999.0,  999.0,  999.0
2012/01/06 07:30,  999.0,  999.0,  999.0,  999.0,  999.0,    1.5,    1.8,  999.0,    3.4,    3.5,    4.0,    4.8,    5.2,    5.3,    5.5,    5.4,    5.0,    4.8,    4.8,    5.0,  999.0,  999.0,    5.3,  999.0,  999.0,  999.0,  999.0,  999.0,  999.0,  999.0,  999.0,  999.0,  999.0,  999.0,  999.0,  999.0,  999.0,  999.0,  999.0,  999.0,  999.0,  999.0,  999.0,  999.0,   10.3,  999.0,  999.0,    8.0,    6.4,    5.2,    5.1,    5.1,    4.7,    4.9,    4.4,    4.2,    4.3,    4.4,    4.1,    3.6,  999.0,    5.1,  999.0,  999.0,  999.0,  999.0,  999.0,  999.0,  999.0,  999.0,  999.0,  999.0,  999.0,  999.0,  999.0,  999.0,  999.0,  999.0,  999.0,  999.0,  999.0,  999.0,  999.0,  999.0,  999.0,  999.0,  999.0,  999.0,  999.0,  999.0,  999.0,  999.0,  999.0,  999.0,  999.0,  999.0,  999.0,  999.0
2012/01/06 07:40,  999.0,  999.0,  999.0,  999.0,    0.9,    1.1,    2.0,    2.8,    3.2,    3.3,    3.7,    4.3,    4.8,    5.1,    5.3,    5.3,    5.0,    5.0,    5.1,    4.8,    5.3,  999.0,  999.0,  999.0,  999.0,    5.5,    5.7,  999.0,  999.0,  999.0,  999.0,  999.0,    5.5,    5.7,  999.0,    6.1,  999.0,  999.0,  999.0,    5.9,    6.2,    7.3,    7.4,    8.4,  999.0,  999.0,    5.6,    5.9,    5.6,  999.0,  999.0,    4.9,    5.3,    5.8,    5.4,    4.9,    4.0,    3.2,  999.0,  999.0,  999.0,  999.0,    6.0,  999.0,  999.0,  999.0,  999.0,  999.0,  999.0,  999.0,  999.0,  999.0,  999.0,  999.0,  999.0,  999.0,  999.0,  999.0,  999.0,  999.0,  999.0,  999.0,  999.0,  999.0,  999.0,  999.0,  999.0,  999.0,  999.0,  999.0,  999.0,  999.0,  999.0,  999.0,  999.0,  999.0,  999.0,  999.0
2012/01/06 07:50,  999.0,  999.0,  999.0,  999.0,    0.9,    1.1,  999.0,    2.9,    3.0,    3.3,    3.8,    3.9,    4.3,    5.0,    5.3,    5.4,    5.5,    5.2,    4.8,    4.6,    5.2,  999.0,    5.3,    5.7,    6.0,    5.2,    5.7,  999.0,    4.6,  999.0,  999.0,  999.0,  999.0,  999.0,    4.7,    6.3,  999.0,  999.0,  999.0,    5.7,    6.2,    6.9,  999.0,  999.0,    8.2,  999.0,    6.5,    7.1,  999.0,  999.0,    5.5,    5.6,    5.7,    5.6,    5.7,  999.0,  999.0,  999.0,  999.0,  999.0,  999.0,  999.0,  999.0,  999.0,  999.0,  999.0,  999.0,  999.0,  999.0,  999.0,  999.0,  999.0,  999.0,  999.0,  999.0,  999.0,  999.0,  999.0,  999.0,  999.0,  999.0,  999.0,  999.0,  999.0,  999.0,  999.0,  999.0,  999.0,  999.0,  999.0,  999.0,  999.0,  999.0,  999.0,  999.0,  999.0,  999.0,  999.0
2012/01/06 08:00,  999.0,  999.0,    1.2,    0.1,    0.9,    1.0,    1.8,    2.4,    3.1,    3.1,    3.5,    3.6,    4.0,    4.6,    5.2,    5.2,    5.3,    5.4,    5.1,    4.4,    4.7,    5.4,  999.0,  999.0,    5.5,    5.4,    4.9,    5.2,  999.0,    5.0,  999.0,  999.0,  999.0,  999.0,    4.5,    5.7,  999.0,  999.0,  999.0,    5.7,    6.4,    7.1,    8.0,    8.4,    8.9,  999.0,    7.0,  999.0,  999.0,  999.0,  999.0,    5.5,    6.0,  999.0,  999.0,  999.0,  999.0,  999.0,  999.0,  999.0,  999.0,  999.0,  999.0,  999.0,  999.0,  999.0,  999.0,  999.0,  999.0,  999.0,  999.0,  999.0,  999.0,  999.0,  999.0,  999.0,  999.0,  999.0,  999.0,  999.0,  999.0,  999.0,  999.0,  999.0,  999.0,  999.0,  999.0,  999.0,  999.0,  999.0,  999.0,  999.0,  999.0,  999.0,  999.0,  999.0,  999.0,  999.0
2012/01/06 08:10,    0.0,    0.4,   -0.0,    0.3,    1.2,    1.0,    1.7,    2.5,    3.0,    3.2,    3.5,    4.1,    4.1,    4.6,    5.1,    5.6,    5.6,    5.6,    5.6,    4.9,    4.8,    5.6,    4.8,    5.1,    5.7,    5.8,    6.2,    5.0,  999.0,  999.0,    5.0,  999.0,  999.0,  999.0,  999.0,    5.1,    6.0,  999.0,  999.0,    5.6,    5.8,    6.3,    7.4,    7.5,    7.8,  999.0,  999.0,  999.0,  999.0,    4.0,    4.4,    5.2,    5.9,  999.0,  999.0,  999.0,  999.0,  999.0,  999.0,  999.0,  999.0,  999.0,  999.0,  999.0,  999.0,  999.0,  999.0,  999.0,  999.0,  999.0,  999.0,  999.0,  999.0,  999.0,  999.0,  999.0,  999.0,  999.0,  999.0,  999.0,  999.0,  999.0,  999.0,  999.0,  999.0,  999.0,  999.0,  999.0,  999.0,  999.0,  999.0,  999.0,  999.0,  999.0,  999.0,  999.0,  999.0,  999.0
2012/01/06 08:20,   -0.6,  999.0,   -0.4,   -0.2,    0.6,    0.7,    1.2,    2.1,    2.7,    2.9,    3.3,    3.5,    4.0,    4.2,    4.8,    5.4,    5.7,    5.2,    5.7,    5.3,    4.7,    5.4,    5.2,    5.2,    5.3,    5.5,    5.3,    4.9,    5.1,  999.0,  999.0,  999.0,  999.0,  999.0,  999.0,    4.9,    6.2,  999.0,  999.0,    5.7,    5.4,    6.2,    7.0,    7.7,  999.0,  999.0,  999.0,  999.0,  999.0,    4.2,    4.7,    5.7,  999.0,  999.0,  999.0,  999.0,  999.0,  999.0,  999.0,  999.0,  999.0,  999.0,  999.0,  999.0,  999.0,  999.0,  999.0,  999.0,  999.0,  999.0,  999.0,  999.0,  999.0,  999.0,  999.0,  999.0,  999.0,  999.0,  999.0,  999.0,  999.0,  999.0,  999.0,  999.0,  999.0,  999.0,  999.0,  999.0,  999.0,  999.0,  999.0,  999.0,  999.0,  999.0,  999.0,  999.0,  999.0,  999.0
2012/01/06 08:30,   -0.1,   -0.3,   -0.4,   -0.1,    0.2,    0.4,    1.2,    1.6,    2.6,    3.0,    3.1,    3.4,    4.0,    4.4,    4.8,    5.4,    5.7,    5.9,    6.0,    5.7,    5.8,    5.6,    6.0,    6.3,    5.4,    5.3,    5.5,    5.2,    5.0,    5.3,    5.1,  999.0,  999.0,    5.0,    4.7,    4.7,    5.7,    6.0,    5.4,    5.0,    5.5,    6.2,    7.0,    7.8,  999.0,    5.8,    6.4,  999.0,  999.0,    4.5,    5.3,    6.2,    6.5,  999.0,  999.0,  999.0,  999.0,  999.0,  999.0,  999.0,  999.0,  999.0,  999.0,  999.0,  999.0,  999.0,  999.0,  999.0,  999.0,  999.0,  999.0,  999.0,  999.0,  999.0,  999.0,  999.0,  999.0,  999.0,  999.0,  999.0,  999.0,  999.0,  999.0,  999.0,  999.0,  999.0,  999.0,  999.0,  999.0,  999.0,  999.0,  999.0,  999.0,  999.0,  999.0,  999.0,  999.0,  999.0
2012/01/06 08:40,   -0.0,  999.0,   -1.4,   -0.4,    0.2,    0.7,    1.6,    1.9,    2.7,    3.3,    3.3,    3.2,    3.9,    4.1,    4.3,    4.8,    5.4,    5.5,    5.8,    5.7,    5.7,    6.1,    6.1,    6.0,    5.8,    5.2,    5.2,    4.9,    5.3,    4.9,    5.3,  999.0,  999.0,    4.6,    5.1,    5.7,    6.1,    6.3,  999.0,    6.0,    6.4,    6.7,    7.0,    7.9,  999.0,  999.0,    6.1,  999.0,  999.0,    4.2,  999.0,    5.6,    6.2,  999.0,  999.0,  999.0,  999.0,  999.0,  999.0,  999.0,  999.0,  999.0,  999.0,  999.0,  999.0,  999.0,  999.0,  999.0,  999.0,  999.0,  999.0,  999.0,  999.0,  999.0,  999.0,  999.0,  999.0,  999.0,  999.0,  999.0,  999.0,  999.0,  999.0,  999.0,  999.0,  999.0,  999.0,  999.0,  999.0,  999.0,  999.0,  999.0,  999.0,  999.0,  999.0,  999.0,  999.0,  999.0
2012/01/06 08:50,  999.0,  999.0,   -0.5,   -0.6,   -0.1,    0.5,    1.3,    1.5,    2.5,    2.9,    3.4,    3.1,    3.3,    3.5,    3.7,    3.8,    4.7,    5.4,    5.3,    5.6,    5.7,    5.8,    6.5,    6.2,    5.9,    5.7,    5.4,    5.0,    4.9,    5.0,    5.3,  999.0,  999.0,    5.0,    5.9,  999.0,  999.0,    6.5,    6.0,    6.0,    6.6,    6.7,    7.0,    7.7,  999.0,  999.0,    6.6,  999.0,    3.5,    4.1,    4.9,    5.9,    6.7,  999.0,  999.0,  999.0,  999.0,  999.0,  999.0,  999.0,  999.0,  999.0,  999.0,  999.0,  999.0,  999.0,  999.0,  999.0,  999.0,  999.0,  999.0,  999.0,  999.0,  999.0,  999.0,  999.0,  999.0,  999.0,  999.0,  999.0,  999.0,  999.0,  999.0,  999.0,  999.0,  999.0,  999.0,  999.0,  999.0,  999.0,  999.0,  999.0,  999.0,  999.0,  999.0,  999.0,  999.0,  999.0
2012/01/06 09:00,  999.0,  999.0,   -0.1,  999.0,   -0.3,    0.5,    1.3,    1.9,    2.0,    2.4,    3.4,  999.0,    3.3,    3.5,    3.8,    3.8,    4.4,    4.8,    4.9,    5.6,    5.8,    5.8,    6.4,    6.3,    5.5,    5.3,    5.2,    5.2,    5.0,    5.0,  999.0,  999.0,    4.2,    4.6,    5.6,    6.1,  999.0,    6.2,    5.6,    5.7,    6.1,    6.4,    6.9,    7.0,  999.0,  999.0,  999.0,  999.0,    3.6,    4.1,    5.1,    6.4,    6.4,  999.0,  999.0,  999.0,  999.0,  999.0,  999.0,  999.0,  999.0,  999.0,  999.0,  999.0,  999.0,  999.0,  999.0,  999.0,  999.0,  999.0,  999.0,  999.0,  999.0,  999.0,  999.0,  999.0,  999.0,  999.0,  999.0,  999.0,  999.0,  999.0,  999.0,  999.0,  999.0,  999.0,  999.0,  999.0,  999.0,  999.0,  999.0,  999.0,  999.0,  999.0,  999.0,  999.0,  999.0,  999.0
2012/01/06 09:10,  999.0,   -1.6,  999.0,  999.0,  999.0,    0.6,    1.3,    1.9,    2.2,    2.2,    3.0,    3.8,    3.9,    3.5,    3.8,    3.9,    4.6,    4.8,    4.8,    5.4,    5.5,    5.8,    6.1,    5.6,    5.6,    5.2,    4.8,    4.8,    5.0,  999.0,  999.0,  999.0,  999.0,    5.2,    5.8,    5.9,  999.0,    5.4,    5.3,    5.4,    5.6,    6.2,    6.5,    6.8,    6.4,    5.2,  999.0,  999.0,    3.7,  999.0,    5.6,    6.5,    6.1,  999.0,  999.0,  999.0,  999.0,  999.0,  999.0,  999.0,  999.0,  999.0,  999.0,  999.0,  999.0,  999.0,  999.0,  999.0,  999.0,  999.0,  999.0,  999.0,  999.0,  999.0,  999.0,  999.0,  999.0,  999.0,  999.0,  999.0,  999.0,  999.0,  999.0,  999.0,  999.0,  999.0,  999.0,  999.0,  999.0,  999.0,  999.0,  999.0,  999.0,  999.0,  999.0,  999.0,  999.0,  999.0
2012/01/06 09:20,   -0.3,  999.0,    0.3,   -0.2,   -0.6,    0.6,    1.2,    0.6,    1.9,    2.3,    3.0,    3.4,    3.6,    3.8,    3.7,    4.1,    4.7,    5.1,    5.2,    5.5,    5.9,  999.0,  999.0,    6.0,    5.9,    5.7,    5.1,    5.1,    5.3,  999.0,  999.0,  999.0,  999.0,    5.3,    5.8,  999.0,    5.8,  999.0,    5.5,    5.3,    5.6,    6.3,  999.0,    6.2,    5.7,    4.9,    4.6,    3.5,    3.9,    5.0,    5.8,    5.9,    5.7,    6.4,    7.0,  999.0,  999.0,  999.0,  999.0,  999.0,  999.0,  999.0,  999.0,  999.0,  999.0,  999.0,  999.0,  999.0,  999.0,  999.0,  999.0,  999.0,  999.0,  999.0,  999.0,  999.0,  999.0,  999.0,  999.0,  999.0,  999.0,  999.0,  999.0,  999.0,  999.0,  999.0,  999.0,  999.0,  999.0,  999.0,  999.0,  999.0,  999.0,  999.0,  999.0,  999.0,  999.0,  999.0
2012/01/06 09:30,   -1.2,   -0.5,  999.0,    0.3,  999.0,    0.1,    0.6,    1.7,    1.6,    1.8,    2.4,    2.9,    3.1,    3.2,    3.4,    3.6,    4.5,    5.1,    5.2,    5.6,    6.1,  999.0,  999.0,    5.7,    6.3,    5.8,    5.2,    5.6,    6.0,  999.0,  999.0,  999.0,  999.0,    6.0,    6.3,    6.3,    6.2,    6.1,    6.1,    5.5,    5.7,    6.3,    6.1,    5.8,    6.4,  999.0,  999.0,  999.0,  999.0,    5.4,    5.6,    5.8,    5.6,    6.0,    6.5,  999.0,  999.0,  999.0,  999.0,  999.0,  999.0,  999.0,  999.0,  999.0,  999.0,  999.0,  999.0,  999.0,  999.0,  999.0,  999.0,  999.0,  999.0,  999.0,  999.0,  999.0,  999.0,  999.0,  999.0,  999.0,  999.0,  999.0,  999.0,  999.0,  999.0,  999.0,  999.0,  999.0,  999.0,  999.0,  999.0,  999.0,  999.0,  999.0,  999.0,  999.0,  999.0,  999.0
2012/01/06 09:40,  999.0,  999.0,  999.0,  999.0,  999.0,   -0.2,   -0.1,    0.4,  999.0,    1.8,    2.7,    3.2,    3.5,    3.5,    3.3,    3.8,    4.1,    4.7,    5.3,    5.5,  999.0,  999.0,  999.0,    5.8,    5.6,    5.6,    5.0,    5.5,    5.7,  999.0,  999.0,  999.0,  999.0,  999.0,    6.1,    6.3,    6.0,    5.7,    6.7,    5.7,    6.0,    6.5,    6.4,    6.5,    6.0,    5.8,    6.7,    5.0,    4.9,    5.6,    5.9,    5.4,    5.9,  999.0,  999.0,  999.0,  999.0,  999.0,  999.0,  999.0,  999.0,  999.0,  999.0,  999.0,  999.0,  999.0,  999.0,  999.0,  999.0,  999.0,  999.0,  999.0,  999.0,  999.0,  999.0,  999.0,  999.0,  999.0,  999.0,  999.0,  999.0,  999.0,  999.0,  999.0,  999.0,  999.0,  999.0,  999.0,  999.0,  999.0,  999.0,  999.0,  999.0,  999.0,  999.0,  999.0,  999.0,  999.0
2012/01/06 09:50,    0.0,  999.0,    1.8,    0.7,    0.5,  999.0,    0.9,    0.8,    1.0,  999.0,    2.2,    3.0,    3.2,    3.5,    3.0,    3.3,    3.9,    4.1,    4.4,    5.2,    5.6,  999.0,  999.0,    5.1,    5.1,    5.1,  999.0,    5.4,    5.8,    5.7,    5.6,  999.0,  999.0,  999.0,    5.5,    6.2,    6.4,  999.0,  999.0,  999.0,    5.7,    6.0,    5.7,    6.1,    4.8,    5.2,    5.0,    4.1,    4.4,    4.6,    4.7,    4.6,    5.4,    5.8,  999.0,  999.0,  999.0,  999.0,  999.0,  999.0,  999.0,  999.0,  999.0,  999.0,  999.0,  999.0,  999.0,  999.0,  999.0,  999.0,  999.0,  999.0,  999.0,  999.0,  999.0,  999.0,  999.0,  999.0,  999.0,  999.0,  999.0,  999.0,  999.0,  999.0,  999.0,  999.0,  999.0,  999.0,  999.0,  999.0,  999.0,  999.0,  999.0,  999.0,  999.0,  999.0,  999.0,  999.0
2012/01/06 10:00,  999.0,  999.0,    3.5,    2.3,    1.8,    2.2,    1.5,    1.0,    1.8,    1.7,    2.8,    3.3,    3.7,    3.6,    3.3,    3.4,    3.9,    4.2,    4.3,    4.9,    5.3,  999.0,  999.0,    5.1,    5.3,    5.1,  999.0,    5.6,    5.9,    5.7,    5.7,    4.9,  999.0,  999.0,  999.0,    5.6,    5.9,  999.0,  999.0,    5.4,    5.7,  999.0,  999.0,    6.0,    5.2,    5.6,    5.0,    5.1,    5.3,    5.7,    5.9,    5.7,    6.7,    7.0,  999.0,  999.0,  999.0,  999.0,  999.0,  999.0,  999.0,  999.0,  999.0,  999.0,  999.0,  999.0,  999.0,  999.0,  999.0,  999.0,  999.0,  999.0,  999.0,  999.0,  999.0,  999.0,  999.0,  999.0,  999.0,  999.0,  999.0,  999.0,  999.0,  999.0,  999.0,  999.0,  999.0,  999.0,  999.0,  999.0,  999.0,  999.0,  999.0,  999.0,  999.0,  999.0,  999.0,  999.0
2012/01/06 10:10,    0.2,    0.6,    2.0,    2.0,    1.5,    1.7,    1.0,    1.1,    1.3,    1.7,    2.4,    2.4,    2.8,    3.1,    3.3,    3.3,    3.5,    3.9,    4.2,    4.5,    5.1,    5.8,  999.0,    4.6,    4.2,    4.8,    4.9,    5.7,    5.8,    5.9,    5.8,    6.2,    5.7,  999.0,  999.0,  999.0,  999.0,  999.0,  999.0,  999.0,  999.0,  999.0,  999.0,  999.0,  999.0,    5.5,    5.8,    5.4,    5.6,    6.1,    6.4,    6.3,    7.0,    7.3,  999.0,  999.0,  999.0,  999.0,  999.0,  999.0,  999.0,  999.0,  999.0,  999.0,  999.0,  999.0,  999.0,  999.0,  999.0,  999.0,  999.0,  999.0,  999.0,  999.0,  999.0,  999.0,  999.0,  999.0,  999.0,  999.0,  999.0,  999.0,  999.0,  999.0,  999.0,  999.0,  999.0,  999.0,  999.0,  999.0,  999.0,  999.0,  999.0,  999.0,  999.0,  999.0,  999.0,  999.0
2012/01/06 10:20,  999.0,   -0.5,    1.7,    2.6,    2.2,    1.5,    1.2,    1.5,  999.0,    1.4,    1.7,    2.0,    2.5,    3.2,    3.5,    3.5,    3.6,    4.2,    4.2,    4.6,    5.3,    5.9,    4.7,    5.1,    4.6,  999.0,    5.2,    5.5,    5.7,    5.4,    5.5,  999.0,  999.0,  999.0,  999.0,  999.0,  999.0,    6.0,  999.0,  999.0,  999.0,  999.0,    5.8,    6.1,  999.0,    4.5,    4.5,    4.6,    5.4,    5.4,    6.0,    5.8,    6.8,    7.2,  999.0,  999.0,  999.0,  999.0,  999.0,  999.0,  999.0,  999.0,  999.0,  999.0,  999.0,  999.0,  999.0,  999.0,  999.0,  999.0,  999.0,  999.0,  999.0,  999.0,  999.0,  999.0,  999.0,  999.0,  999.0,  999.0,  999.0,  999.0,  999.0,  999.0,  999.0,  999.0,  999.0,  999.0,  999.0,  999.0,  999.0,  999.0,  999.0,  999.0,  999.0,  999.0,  999.0,  999.0
2012/01/06 10:30,    2.1,    2.5,    3.2,    3.1,    2.6,    3.0,    2.7,    1.8,    1.3,    1.5,    1.7,    1.6,    2.2,    2.6,    2.8,    2.9,    2.9,    3.6,    3.8,    4.2,    5.2,  999.0,    4.5,    4.4,  999.0,  999.0,    5.0,    5.1,    5.4,    5.1,    5.1,  999.0,  999.0,  999.0,  999.0,  999.0,  999.0,  999.0,  999.0,    5.0,  999.0,    5.1,    5.6,    6.9,    4.2,    4.6,    4.9,    5.4,    5.0,    5.8,  999.0,    5.9,    6.3,    7.2,  999.0,  999.0,  999.0,  999.0,  999.0,  999.0,  999.0,  999.0,  999.0,  999.0,  999.0,  999.0,  999.0,  999.0,  999.0,  999.0,  999.0,  999.0,  999.0,  999.0,  999.0,  999.0,  999.0,  999.0,  999.0,  999.0,  999.0,  999.0,  999.0,  999.0,  999.0,  999.0,  999.0,  999.0,  999.0,  999.0,  999.0,  999.0,  999.0,  999.0,  999.0,  999.0,  999.0,  999.0
2012/01/06 10:40,    0.6,    2.0,  999.0,  999.0,    2.4,    1.9,    1.6,    1.1,    1.4,    1.4,    2.0,    2.3,    2.6,    2.7,    2.7,    2.5,    2.3,    2.6,    3.4,    3.2,    3.6,    4.3,  999.0,    4.6,    4.8,    4.7,  999.0,    4.4,    5.0,    4.7,    4.8,    4.4,    4.3,  999.0,    5.9,  999.0,  999.0,  999.0,    5.7,    5.7,    5.6,    5.4,    6.1,    5.2,    4.0,    4.4,    4.5,    5.0,    5.1,    5.4,  999.0,  999.0,    5.0,  999.0,  999.0,  999.0,  999.0,  999.0,  999.0,  999.0,  999.0,  999.0,  999.0,    6.3,  999.0,  999.0,  999.0,  999.0,  999.0,  999.0,  999.0,  999.0,  999.0,  999.0,  999.0,  999.0,  999.0,  999.0,  999.0,  999.0,  999.0,  999.0,  999.0,  999.0,  999.0,  999.0,  999.0,  999.0,  999.0,  999.0,  999.0,  999.0,  999.0,  999.0,  999.0,  999.0,  999.0,  999.0
2012/01/06 10:50,    0.3,  999.0,    3.4,    1.6,    3.0,    1.2,    1.9,    1.5,    1.7,    1.5,    1.4,    1.9,    2.3,    1.0,    1.7,    2.4,    0.5,    3.1,    3.0,    3.8,    4.3,    4.7,    4.1,    4.5,    4.8,    5.2,    5.5,    4.6,    4.4,    4.3,    4.5,    4.1,    4.3,  999.0,  999.0,  999.0,  999.0,    8.1,    7.2,    6.9,    5.2,    6.3,    6.0,    7.2,    2.7,    3.3,    3.9,    4.0,    4.5,    4.8,    4.2,    4.3,    4.7,    5.0,    5.0,    5.3,    5.4,  999.0,  999.0,  999.0,  999.0,  999.0,  999.0,  999.0,  999.0,  999.0,  999.0,  999.0,  999.0,  999.0,  999.0,  999.0,  999.0,  999.0,  999.0,  999.0,  999.0,  999.0,  999.0,  999.0,  999.0,  999.0,  999.0,  999.0,  999.0,  999.0,  999.0,  999.0,  999.0,  999.0,  999.0,  999.0,  999.0,  999.0,  999.0,  999.0,  999.0,  999.0
2012/01/06 11:00,  999.0,  999.0,  999.0,  999.0,  999.0,  999.0,    2.1,   -1.2,    0.7,    1.5,    1.0,    0.7,    1.2,    2.3,    2.0,    2.4,    3.4,    4.0,    3.3,    3.9,    3.7,    4.7,    3.7,    3.2,    4.9,    6.5,    4.9,    3.5,    3.2,    3.5,    3.8,    3.0,    3.7,    1.4,   -1.0,    2.3,    2.3,    3.4,   -0.5,    1.9,    2.8,    2.7,    3.2,    1.6,    2.8,    3.5,    3.8,    3.0,    3.0,    3.7,    4.0,    4.9,    5.0,    5.4,    5.8,    6.3,    6.9,    7.1,    7.3,    7.3,    7.3,    7.5,  999.0,  999.0,    1.7,  999.0,  999.0,  999.0,  999.0,   -4.4,  999.0,  999.0,   -1.1,   -4.4,   -5.3,   -3.0,   -2.4,   -2.3,   -3.0,  999.0,  999.0,  999.0,  999.0,  999.0,  999.0,  999.0,  999.0,  999.0,  999.0,  999.0,  999.0,  999.0,  999.0,  999.0,  999.0,  999.0,  999.0,  999.0
2012/01/06 11:10,   12.9,   12.7,   12.4,   12.0,   10.4,    8.8,    5.4,    5.8,    5.5,    6.2,    5.4,    3.4,    0.9,    2.2,    1.7,    1.0,  999.0,   -2.2,    0.7,    2.4,  999.0,    1.1,    2.0,    1.0,    1.0,    1.1,    2.8,    0.7,    7.4,    5.6,    6.5,   13.9,    8.5,    5.7,   10.2,    4.0,   -1.6,    4.1,    2.4,    1.4,    5.0,   -1.1,    0.3,    1.4,    0.2,    1.5,   -0.9,    0.5,    5.5,    2.9,    1.5,    2.8,    2.3,    2.7,    2.0,    3.1,    3.9,    4.1,  999.0,    4.6,    4.2,  999.0,    4.3,    3.4,    3.3,    1.3,    1.6,    0.9,    0.7,    1.1,    1.2,    0.9,    0.5,    0.6,    1.4,    1.4,    1.8,    2.4,    2.3,  999.0,    1.6,  999.0,  999.0,  999.0,  999.0,  999.0,  999.0,  999.0,  999.0,  999.0,  999.0,  999.0,  999.0,  999.0,  999.0,  999.0,  999.0,  999.0
2012/01/06 11:20,  -22.0,  -22.4,  -21.0,  -21.2,  -22.5,  -24.2,  -24.7,  -16.3,  -15.5,  -12.6,  -17.5,  -16.4,  -10.4,  999.0,  999.0,  999.0,  -29.6,  -29.0,  999.0,  999.0,  -30.0,  -29.1,  -28.3,  -19.3,  -27.9,   -2.0,    1.5,   -3.4,   -4.6,    4.5,  999.0,  999.0,  999.0,    0.9,    2.5,    6.7,  999.0,    3.5,  999.0,   -1.1,    0.4,    3.9,   -0.0,   -1.8,    0.9,    4.3,  999.0,  999.0,   -0.7,   -1.0,   -1.7,  999.0,    0.1,    1.1,    1.3,   -0.1,   -1.0,   -1.2,   -1.7,   -2.0,   -2.8,   -2.0,  999.0,    0.0,   -0.0,   -0.6,   -1.3,    0.8,    0.8,    0.7,   -0.7,   -0.9,   -0.7,   -2.3,   -2.5,   -1.6,   -2.1,   -1.5,   -0.0,   -0.2,   -0.4,    0.0,    0.2,   -0.3,    0.5,    0.1,    0.3,    0.4,    0.1,   -0.1,   -0.2,   -2.8,  999.0,  999.0,  999.0,  999.0,   -2.2,  999.0
2012/01/06 11:30,  -21.6,  -22.5,  -21.3,  -20.3,  -20.6,  -21.0,  -21.0,  -22.8,  -24.5,  -24.5,  -24.6,  -24.7,  -24.1,  -24.4,  -25.1,  -25.8,  -25.3,  -22.7,  -21.7,  -22.2,  -23.2,  -21.2,  -22.0,  -22.3,  -22.0,  -23.0,  -18.6,  -16.9,  -18.7,  -20.2,  -20.2,  -21.6,  -15.5,  -19.7,   -9.6,   -9.5,   -7.6,   -7.5,  -12.6,  -14.8,  -14.3,  -13.7,  999.0,   -9.2,    1.0,   -6.6,  999.0,    0.9,    1.9,    0.3,    1.2,   -1.5,   -1.5,   -0.3,   -0.5,   -0.0,   -1.5,   -1.2,  999.0,  999.0,  999.0,  999.0,   -0.2,  999.0,    0.5,   -0.3,   -0.3,   -0.5,   -0.4,   -0.6,    0.0,   -1.2,   -0.3,    0.7,   -0.1,   -0.7,   -0.6,   -1.2,   -1.3,   -1.6,   -0.7,   -1.0,   -0.4,   -0.5,   -0.9,   -0.5,   -1.1,    0.1,    0.7,    1.6,   -0.3,   -0.5,  999.0,    0.9,   -0.5,    2.8,    3.2,  999.0
2012/01/06 11:40,   11.6,  999.0,  999.0,  -20.9,  -20.0,  -19.5,  -19.6,  -20.4,  -20.4,  -20.4,  -21.1,  -20.9,  -20.1,  -19.8,  -20.2,  -21.3,  -22.5,  999.0,  999.0,    9.4,    8.5,    6.1,    7.5,    7.4,    8.4,    9.5,    9.9,    9.8,  999.0,    9.3,    8.3,    8.1,    7.6,    7.9,    7.3,    6.9,    6.5,    5.5,    4.3,    4.1,    2.8,    1.7,    1.9,    2.9,    3.0,    3.6,    4.1,    5.1,    2.8,    3.7,    3.3,    2.3,    1.7,    1.8,    1.4,    0.1,    0.1,   -0.1,   -0.0,    0.1,    0.4,    0.2,    0.2,    0.4,    0.3,    0.2,   -0.1,   -0.2,   -0.6,   -1.3,   -1.4,   -1.6,   -1.8,   -1.9,   -1.9,   -1.9,   -2.1,   -2.1,   -2.4,   -2.9,   -3.2,   -3.6,   -3.3,   -3.8,   -4.3,   -4.5,   -5.4,   -4.9,   -5.4,   -5.9,   -5.6,   -7.1,   -7.3,  999.0,  999.0,  999.0,  999.0,  999.0
2012/01/06 11:50,    8.7,    2.4,    2.7,    4.2,    5.1,    5.7,    1.9,   -5.1,   -4.6,   -4.4,   -9.8,   -5.5,   -2.8,    3.4,    3.7,   14.8,   -2.1,    5.7,   11.1,    8.8,  999.0,    7.1,    6.9,    7.2,    6.9,    6.1,    5.2,    2.9,    4.2,    1.4,    4.4,    4.2,    4.9,  999.0,    6.7,    5.8,    6.1,  999.0,  999.0,  999.0,  999.0,  999.0,  999.0,    6.3,    6.6,    6.6,    7.3,    6.8,    6.1,    5.9,    5.9,    5.9,    5.6,    5.4,    5.4,    4.8,    3.9,    3.5,    2.3,    1.5,    1.1,    0.8,    0.8,    0.4,   -0.2,   -0.8,   -0.9,   -1.3,   -1.7,   -2.1,   -2.7,   -3.1,   -3.3,   -3.3,   -3.3,   -3.3,   -2.7,   -2.7,   -2.5,   -1.6,   -1.5,   -1.7,   -2.8,   -2.9,   -3.0,   -3.4,   -4.1,   -4.8,   -5.4,   -6.0,   -6.4,   -7.6,   -7.7,   -6.6,   -7.6,   -8.2,   -4.5,  999.0
2012/01/06 12:00,  -24.3,  -25.5,  -24.0,  -23.2,  -22.8,  -22.7,  -22.3,  -21.9,  999.0,  -20.8,  -19.7,  -20.2,  -21.6,  -21.8,  -21.3,  -21.5,  -20.6,  -21.7,  -22.7,  -24.1,  -26.5,  -27.4,  -28.4,  -28.9,  -28.5,  -28.8,  -21.2,  -23.3,  -23.1,  -22.9,  -22.6,  -23.4,  -23.6,  -30.2,  -30.1,  -30.2,  -29.9,  -30.2,  -31.0,  999.0,  999.0,  999.0,  999.0,  999.0,  999.0,    6.2,    5.3,    4.6,    4.5,    4.2,    4.2,    3.9,    3.5,    3.0,    2.9,    2.4,    1.6,    1.1,    0.5,   -0.2,   -0.9,   -1.1,   -1.1,   -1.0,   -1.0,   -1.2,   -1.6,   -1.9,   -2.3,   -2.4,   -2.4,   -2.4,   -2.5,   -2.7,   -2.9,   -3.0,   -2.9,   -2.8,   -3.2,   -3.3,   -3.4,   -3.5,   -3.3,   -2.9,   -3.1,   -3.6,  999.0,  999.0,  999.0,  999.0,  999.0,  999.0,  999.0,  999.0,  999.0,  999.0,  999.0,  999.0
2012/01/06 12:10,  -27.0,  -27.6,  -26.9,  -26.4,  -25.3,  -23.9,  -23.1,  -22.6,  -22.4,  -21.6,  -21.8,  -22.3,  -23.9,  -23.8,  -23.0,  -22.1,  -21.5,  -21.7,  -22.2,  -24.0,  -24.6,  -25.9,  -27.5,  -27.6,  -27.9,  -27.3,  -27.4,  -28.5,  -28.6,  -28.3,  -27.9,  -28.9,  -29.0,  -28.7,  -29.6,  -29.5,  -30.6,  -30.6,  -31.7,  999.0,  999.0,  999.0,  999.0,    4.2,    4.5,    4.5,    3.9,    3.4,    3.7,    4.0,    3.4,    2.4,    1.6,    0.6,   -0.1,   -0.5,   -0.7,   -0.9,   -0.9,   -1.1,   -1.3,   -1.3,   -1.1,   -1.1,   -1.4,   -1.5,   -1.3,   -1.3,   -1.4,   -1.3,   -1.5,   -1.7,   -1.8,   -1.7,   -1.8,   -1.8,   -2.0,   -2.5,   -2.6,   -2.9,   -3.0,   -2.9,   -2.8,   -2.6,  999.0,  999.0,  999.0,  999.0,  999.0,  999.0,  999.0,  999.0,  999.0,  999.0,  999.0,  999.0,  999.0,  999.0
2012/01/06 12:20,  -27.6,  -27.9,  -28.4,  -28.5,  -27.4,  -27.1,  -25.6,  -24.1,  -23.6,  -22.8,  -22.4,  -22.6,  -23.6,  -25.1,  -25.6,  -25.7,  -24.9,  -23.7,  -23.8,  -22.9,  -23.3,  -23.9,  -24.2,  -24.6,  -24.3,  -24.2,  -23.3,  -24.1,  -25.0,  -25.3,  -26.1,  -26.6,  -27.5,  -28.4,  -29.1,  -29.5,  -30.5,  999.0,  999.0,  999.0,  999.0,  999.0,  999.0,  999.0,    2.0,    2.2,    2.6,    3.6,    4.1,    4.4,    4.7,    4.7,    4.0,    3.1,    2.1,    1.0,    0.2,    0.0,    0.3,    0.5,    0.2,    0.3,    0.5,  999.0,   -0.6,   -1.1,   -1.2,   -1.7,   -2.2,   -2.1,   -2.3,   -2.5,   -2.7,   -2.6,   -2.4,   -2.1,   -2.0,   -2.5,   -2.4,   -2.8,   -2.8,  999.0,  999.0,  999.0,  999.0,  999.0,  999.0,  999.0,  999.0,  999.0,  999.0,  999.0,  999.0,  999.0,  999.0,  999.0,  999.0,  999.0
2012/01/06 12:30,  999.0,  -27.5,  -27.5,  -27.7,  -26.9,  -27.3,  -27.2,  -25.8,  -25.0,  -24.0,  -23.1,  -22.9,  -23.7,  -23.5,  -24.1,  -24.8,  -23.5,  -22.0,  -20.3,  -20.2,  -20.5,  -20.0,  -19.6,  -19.5,  -20.0,  -20.3,  -20.3,  -21.2,  -21.8,  -22.4,  -23.5,  -24.3,  -25.6,  -25.6,  -26.3,  -26.4,  -26.5,  -27.0,  999.0,  999.0,  999.0,  999.0,  999.0,  999.0,    3.2,    2.2,    1.8,    1.9,    2.2,    2.7,    3.2,    3.3,    3.2,    2.7,    2.1,    1.5,    0.7,   -0.2,   -0.5,   -0.4,   -0.5,   -0.5,   -0.2,    0.2,    0.3,    0.2,   -0.3,   -0.5,   -0.7,   -0.6,   -0.9,   -1.2,   -1.7,   -1.9,   -2.0,   -2.0,   -2.2,   -2.4,   -2.7,   -2.8,   -3.5,   -3.9,   -4.5,   -5.1,   -5.3,   -4.9,  999.0,   -4.1,   -4.0,  999.0,  999.0,   -3.8,   -4.2,   -4.5,   -4.6,   -5.0,   -5.4,   -4.5
2012/01/06 12:40,  -28.9,  -28.4,  -27.6,  -27.0,  -26.6,  -26.7,  -27.1,  -26.3,  -25.0,  -23.4,  -22.6,  -22.5,  -21.5,  -21.3,  -21.8,  -21.9,  -21.2,  -20.4,  -18.8,  -18.6,  -19.8,  -20.1,  -20.4,  -20.6,  -20.8,  -22.5,  -23.4,  -24.2,  -24.3,  -24.8,  -25.0,  -25.0,  -25.2,  -25.8,  -25.6,  -25.5,  -26.1,  -25.7,  999.0,  999.0,  999.0,  999.0,  999.0,  999.0,    5.2,    3.9,    2.9,    2.0,    1.7,    1.3,    1.4,    1.0,    0.2,   -0.1,   -0.4,   -0.7,   -1.0,   -0.8,   -0.3,   -0.1,    1.1,    2.1,    2.8,    2.9,    2.6,    2.1,    1.6,    0.7,   -0.1,   -0.5,   -1.0,   -1.4,   -1.4,   -1.6,   -2.0,   -2.1,   -2.2,   -2.3,   -2.6,   -2.6,   -3.4,   -4.4,   -5.0,   -5.3,   -5.3,   -5.4,   -4.8,   -5.0,   -5.0,   -5.1,   -5.6,   -6.0,   -6.3,   -6.8,   -7.4,   -7.9,   -8.6,   -8.5
2012/01/06 12:50,  -28.9,  -28.7,  -27.8,  -27.8,  -27.6,  -27.6,  -27.9,  -28.0,  -27.3,  -26.8,  -26.2,  -25.4,  -23.9,  -22.8,  -22.4,  -22.9,  -22.7,  -21.8,  -21.0,  -20.4,  -19.7,  -19.6,  -20.9,  -21.3,  -22.3,  -23.3,  -24.3,  -25.4,  -25.7,  -26.2,  -26.1,  -26.2,  -26.4,  -26.8,  -27.3,  -27.6,  -28.0,  -27.9,  -28.5,  999.0,  999.0,  999.0,  999.0,  999.0,  999.0,    6.0,    4.8,    3.7,    3.8,    3.9,    3.7,    3.4,    2.8,    2.5,    2.1,    1.7,    1.2,    0.9,    1.2,    1.6,    1.9,    2.7,    2.9,    2.3,    1.8,    1.3,    0.9,    0.7,    0.5,    0.3,    0.1,   -0.2,   -0.8,   -1.1,   -1.7,   -2.0,   -2.4,   -2.1,   -2.2,   -2.7,   -2.8,   -2.5,   -2.8,   -3.2,   -3.7,   -3.7,   -3.6,   -3.7,   -2.9,   -5.8,   -6.5,   -7.3,   -8.2,   -9.1,  -10.0,  -10.5,  -11.1,  -10.7
2012/01/06 13:00,  -28.9,  -28.9,  -28.3,  -28.3,  -28.5,  -28.4,  -28.5,  -28.2,  -28.0,  -28.3,  -27.8,  -27.0,  -26.5,  -25.8,  -24.5,  -24.0,  -23.3,  -23.2,  -22.3,  -21.5,  -20.7,  -20.2,  -20.9,  -22.2,  -23.4,  -24.1,  -24.4,  -25.1,  -24.9,  -25.4,  -26.1,  -26.1,  -26.4,  -26.7,  -27.2,  -28.1,  -29.2,  -29.6,  999.0,  999.0,  999.0,  999.0,  999.0,  999.0,  999.0,    5.8,    5.7,    5.4,    4.9,    4.4,    3.9,    3.7,    3.4,    3.2,    3.3,    3.6,    3.6,    3.5,    3.4,    3.3,    2.9,    2.7,    2.4,    2.2,    2.3,    2.0,    1.4,    0.6,    0.3,    0.3,    0.4,    0.5,    0.4,    0.1,   -0.1,   -0.5,   -0.8,   -1.2,   -1.3,   -1.4,   -1.3,   -1.2,   -1.5,   -1.8,   -2.0,   -2.2,   -2.3,   -2.5,   -2.7,   -3.0,   -3.5,   -4.0,   -5.0,   -6.0,   -7.0,   -7.7,   -8.7,   -9.6
2012/01/06 13:10,    4.5,    5.4,   -7.6,  -14.2,  -14.3,  -13.9,  -10.8,  -14.2,  -14.2,  -14.9,  -27.8,  -26.6,  -25.2,  -24.5,  -23.9,  -23.3,  -22.6,  -22.4,  -21.7,  -20.8,  -20.4,  -20.4,  -21.0,  -21.2,  -22.7,  -23.6,  -23.8,  -24.7,  -25.1,  -25.6,  -26.3,  -26.5,  -26.4,  -27.4,  -28.0,  -28.7,  -29.7,  999.0,  999.0,  999.0,  999.0,  999.0,  999.0,  999.0,  999.0,  999.0,    6.4,    6.1,    5.9,    5.6,    5.6,    5.2,    4.7,    4.6,    4.6,    4.5,    4.5,    4.5,    4.2,    4.0,    3.7,    3.4,    2.9,    2.3,    1.8,    1.5,    1.4,    0.7,    0.4,    0.2,    0.0,   -0.1,   -0.2,   -0.2,   -0.3,   -0.4,   -0.7,   -1.1,   -1.5,   -1.7,   -1.7,   -1.8,   -1.9,   -2.0,   -2.3,   -2.6,   -3.2,   -3.5,   -3.6,   -3.8,   -4.0,   -4.1,   -4.7,   -4.5,   -5.1,   -5.7,   -6.7,  999.0
2012/01/06 13:20,    5.6,    6.0,    6.9,    6.6,    5.9,    6.1,    6.5,    6.7,    6.4,  999.0,  999.0,  999.0,  999.0,  999.0,  -24.3,  -23.7,  -23.7,  -23.7,  -23.5,  -23.1,  -22.8,  -22.8,  -22.7,  -22.6,  -22.7,  -23.3,  -24.1,  -24.3,  -24.7,  -24.7,  -25.2,  -25.9,  -26.4,  -26.7,  -27.3,  -28.5,  999.0,  999.0,  999.0,  999.0,  999.0,    7.1,    6.2,    6.0,    6.5,  999.0,    7.3,    6.8,    6.1,    5.7,    5.6,    5.3,    5.1,    4.9,    4.7,    4.5,    4.1,    3.8,    3.9,    4.1,    3.9,    3.8,    3.9,    3.8,    3.3,    2.6,    1.9,    1.2,    0.3,   -0.3,   -0.6,   -0.9,   -1.1,   -0.9,   -0.8,   -0.8,   -0.9,   -1.0,   -1.3,   -1.8,   -1.9,   -1.8,   -1.9,   -2.1,   -2.2,   -2.3,   -2.3,   -2.3,   -2.6,   -2.8,   -3.1,   -3.6,   -4.1,   -4.4,   -4.6,   -4.7,   -5.0,   -5.6
2012/01/06 13:30,    5.3,    6.1,    6.5,    6.1,    5.1,    5.3,    5.2,    5.1,    5.0,    5.4,    7.3,    8.5,    8.8,  999.0,  -24.1,  -23.9,  -23.5,  -23.0,  -23.0,  -24.3,  -24.6,  -24.6,  -24.4,  -24.0,  -23.0,  -23.2,  -24.0,  -24.7,  -24.9,  -25.5,  -25.8,  -27.0,  -27.1,  -27.0,  -27.0,  -27.8,  -26.8,  999.0,  999.0,  999.0,  999.0,  999.0,  999.0,    4.6,    3.9,    3.8,    4.3,    4.5,    4.9,    5.1,    4.9,    4.3,    3.9,    3.6,    3.2,    2.8,    2.3,    2.1,    2.0,    2.1,    2.0,    1.9,    1.9,    2.3,    2.8,    3.1,    3.3,    3.2,    2.6,    1.4,    0.5,   -0.4,   -1.0,   -1.4,   -1.5,   -1.3,   -1.6,   -1.9,   -2.3,   -2.8,   -3.3,   -3.5,   -4.1,   -3.8,   -3.6,   -3.6,   -3.4,   -3.2,   -3.1,   -3.1,   -3.2,   -3.2,   -3.3,   -3.4,   -3.5,   -3.7,   -3.7,   -4.4
2012/01/06 13:40,    5.5,    6.2,    6.8,    7.0,    6.4,    6.4,    6.3,    6.3,    6.5,    6.6,    7.0,    8.2,    8.8,    9.1,   10.2,   11.1,   10.6,   10.6,   -6.7,  -12.8,  -11.0,  -11.3,   -8.0,  -10.7,  -10.4,   -7.5,   -8.0,   -8.1,   -8.7,    8.1,    7.8,    7.5,    7.5,    8.3,    7.8,    8.3,    8.3,    7.7,    7.2,    8.0,  999.0,    8.7,    7.1,    6.7,    5.9,    6.0,    5.9,    5.9,    5.6,    5.6,    5.5,    5.2,    4.7,    3.9,    3.1,    2.8,    2.3,    1.7,    1.3,    1.3,    1.4,    1.4,    1.3,    0.9,    0.6,    0.4,    0.4,    0.4,    0.2,   -0.0,   -0.2,   -0.4,   -0.6,   -1.1,   -1.4,   -1.5,   -1.7,   -2.1,   -2.4,   -2.6,   -3.1,   -3.7,   -4.6,   -5.6,   -6.3,   -6.9,   -6.6,   -6.9,   -7.3,   -7.2,   -7.2,   -7.0,   -6.3,   -5.5,   -5.3,   -5.1,   -5.4,   -5.9
2012/01/06 13:50,    5.6,    5.6,    4.9,    5.4,    5.7,    5.9,    5.5,    5.2,    6.0,    5.9,    6.3,    8.1,    8.7,    9.2,   10.2,    8.1,    9.6,    9.0,    9.5,    9.3,    9.1,    9.0,    8.3,    9.1,    9.4,    8.8,    8.3,    9.5,    8.9,    8.4,    7.9,    7.3,  999.0,  999.0,  999.0,  999.0,  999.0,  999.0,  999.0,  999.0,  999.0,  999.0,  999.0,    8.6,    7.6,    6.7,    5.9,    5.4,    4.6,    4.6,    4.5,    4.4,    4.3,    4.2,    4.2,    4.0,    3.6,    3.3,    2.7,    2.3,    2.2,    2.0,    1.7,    1.3,    1.0,    0.8,    0.5,    0.0,   -0.4,   -0.9,   -1.0,   -1.1,   -1.0,   -0.7,   -0.9,   -1.2,   -1.7,   -1.8,   -2.2,   -2.4,   -2.8,   -3.4,   -5.0,   -6.4,   -7.6,   -8.3,   -8.3,   -8.4,   -8.5,  999.0,   -9.9,  999.0,  999.0,  999.0,  999.0,  999.0,  999.0,  999.0
2012/01/06 14:00,    5.0,    5.1,    5.5,    4.8,    4.5,    5.4,    4.5,    4.7,    5.5,    5.9,    5.9,    6.8,    7.6,    8.2,    8.6,    9.3,    9.7,   10.5,   11.0,   11.1,   11.3,   10.8,   11.3,   10.1,   10.1,    9.6,    8.3,    7.5,    7.9,    7.9,    8.9,    9.3,    9.8,   10.0,    9.3,    9.1,    9.9,   10.6,   11.0,    9.9,  999.0,  999.0,    8.0,    6.4,    6.5,    6.1,    5.9,    6.0,    6.0,    5.7,    5.1,    4.6,    4.3,    4.1,    3.8,    3.8,    3.8,    3.7,    3.3,    3.1,    2.4,    2.3,    2.4,    2.3,    2.0,    1.3,    0.6,   -0.4,   -1.5,   -1.8,   -1.8,   -2.0,   -2.3,   -2.8,   -3.0,   -3.1,   -2.9,   -3.6,   -4.2,   -4.9,   -5.6,   -6.0,   -6.5,   -7.1,   -7.7,   -8.1,   -8.0,   -8.3,  999.0,  999.0,  999.0,  999.0,  999.0,  999.0,  999.0,  999.0,  999.0,  999.0
2012/01/06 14:10,    3.2,    4.9,    5.7,    5.7,    6.0,    7.3,    6.6,    6.5,    6.4,    6.5,    6.7,    5.6,    6.7,    7.8,    7.8,    8.5,    8.9,   10.2,   11.1,   12.0,   11.3,   12.4,  999.0,  999.0,  -22.4,  -22.7,  -23.4,  -23.4,  999.0,  999.0,  999.0,    1.4,   -1.0,    0.4,   -0.2,    8.6,    9.4,    9.1,   10.0,    8.9,  999.0,    8.8,  999.0,    8.4,  999.0,    7.6,    7.2,    7.0,    6.5,    5.7,    4.7,    3.9,    3.4,    3.1,    3.0,    2.8,    2.6,    2.5,    2.3,    1.9,    1.9,    1.9,    1.7,    1.4,    1.0,    0.7,   -0.6,   -1.4,   -2.5,   -3.3,   -3.5,   -3.4,   -3.4,   -3.5,   -3.7,   -3.7,   -3.1,   -2.9,   -3.2,   -4.3,   -4.4,   -4.8,   -5.6,   -5.8,   -5.9,   -6.3,   -6.6,   -6.6,   -6.9,   -7.0,   -7.4,   -7.6,   -8.1,   -9.2,  999.0,  999.0,  999.0,  999.0
2012/01/06 14:20,    4.2,    5.2,    6.0,    5.7,    6.8,    6.7,    7.0,    7.8,    7.7,    8.2,    7.7,    7.3,    6.8,    7.1,    7.5,    8.2,    9.0,    8.1,    8.2,  999.0,  999.0,  999.0,  -25.9,  -24.3,  -22.9,  -23.2,  -24.0,  -24.6,  -24.8,  -25.6,  -26.0,  -26.1,  -25.9,  -26.2,  -27.2,  -28.2,  -28.0,  -28.0,  -28.3,  -27.8,  999.0,  999.0,  999.0,  999.0,    6.9,    6.8,    6.5,    6.0,    5.3,    4.0,    3.5,    2.4,    1.9,    1.4,    1.1,    0.9,    0.7,    0.5,    0.4,    0.4,    0.2,    0.3,    0.6,    0.8,    0.9,    0.6,    0.4,    0.1,   -0.6,   -1.7,   -2.3,   -2.8,   -3.3,   -3.5,   -3.5,   -3.1,   -2.4,   -2.1,   -2.0,   -2.3,   -2.9,   -3.8,   -4.4,   -5.1,   -5.6,   -6.2,   -6.5,   -6.8,   -7.1,  999.0,  999.0,  999.0,  999.0,  999.0,  999.0,  999.0,  999.0,  999.0
2012/01/06 14:30,    3.8,    5.7,    6.3,    6.7,    6.8,    7.0,    8.0,    8.0,    8.3,    8.2,    8.9,    9.1,    8.1,    7.5,    7.1,    7.5,    7.3,    8.0,    8.3,    8.3,    8.5,  999.0,  999.0,  999.0,  999.0,  999.0,  999.0,  999.0,  -24.3,  -25.3,  -26.5,  -25.6,  -24.9,  -26.2,  999.0,  999.0,  999.0,  999.0,  999.0,  999.0,  999.0,  999.0,  999.0,  999.0,  999.0,    6.3,    6.1,    4.7,    4.0,    3.8,    2.9,    2.5,    1.9,    1.9,    2.2,    1.8,    1.5,    1.2,    1.1,    1.2,    1.5,    1.9,    1.8,    1.7,    1.4,    0.8,    0.2,    0.1,    0.1,   -0.4,   -1.0,   -1.7,   -2.2,   -3.1,   -3.5,   -3.5,   -3.2,   -2.9,   -2.8,   -2.8,   -3.3,   -3.8,   -4.3,   -4.8,   -5.2,   -5.8,   -6.4,   -6.9,   -7.2,   -7.0,  999.0,  999.0,  999.0,  999.0,  999.0,  999.0,  999.0,  999.0
2012/01/06 14:40,    4.3,    5.9,    6.0,    6.5,    6.9,    6.9,    7.6,    8.3,    8.2,    8.0,    9.1,    8.7,    8.5,    8.2,    7.8,    7.5,    6.9,    7.8,    8.3,    8.1,    7.8,    8.3,  999.0,  999.0,  999.0,  999.0,  999.0,  999.0,  -22.0,  -22.7,  -23.9,  999.0,  999.0,  999.0,  999.0,  999.0,  999.0,  999.0,  999.0,  999.0,    4.6,    6.7,  999.0,  999.0,  999.0,  999.0,    4.6,    3.9,    3.3,    3.3,    3.3,    2.9,    2.7,    2.3,    2.2,    1.8,    1.5,    1.0,    0.6,    0.5,    0.4,    0.6,    1.1,    1.7,    2.1,    1.8,    1.2,    1.0,    0.9,    0.6,   -0.0,   -0.4,   -0.7,   -1.4,   -2.2,   -2.9,   -3.3,   -3.3,   -3.3,   -3.3,   -3.1,   -3.1,   -3.2,   -3.4,   -3.3,   -3.9,   -4.8,   -5.3,   -5.8,   -6.3,   -6.1,  999.0,  999.0,  999.0,  999.0,  999.0,  999.0,  999.0
2012/01/06 14:50,    4.0,    5.2,    6.1,    6.5,    6.9,    8.6,    9.0,    9.0,    8.4,    8.2,    8.6,    8.4,    8.1,    7.8,    7.9,    8.2,    7.7,    8.8,    8.6,    9.0,    8.5,  999.0,  999.0,  999.0,  999.0,  999.0,  999.0,  999.0,  999.0,  -23.8,  999.0,  -24.0,  -24.2,  -25.9,  -25.8,  -26.1,  -25.7,  999.0,  999.0,  999.0,  999.0,  999.0,  999.0,  999.0,  999.0,    5.2,    4.2,    3.3,    2.8,    2.8,    2.9,    3.0,    2.7,    2.2,    1.8,    1.1,    0.2,   -0.2,   -0.1,    0.0,    0.2,    0.4,    0.4,    0.5,    0.8,    0.9,    1.0,    1.1,    1.3,    1.2,    0.8,    0.5,    0.3,   -0.1,   -0.8,   -1.7,   -2.8,   -3.4,   -3.7,   -3.5,   -3.3,   -3.1,   -2.9,   -3.0,   -3.1,   -3.4,   -4.0,   -4.4,   -5.2,   -5.3,   -4.9,   -5.0,   -4.8,   -5.0,   -5.6,   -5.9,   -6.3,   -6.8
2012/01/06 15:00,    3.2,    4.2,    5.6,    6.5,    7.4,    7.7,    7.9,  999.0,    7.5,    7.0,    6.3,    1.5,    5.6,    6.0,    4.9,    4.7,  999.0,  999.0,  999.0,  999.0,  999.0,  999.0,  -25.8,  -24.5,  -24.2,  -24.0,  -23.6,  -22.6,  -21.9,  -21.6,  -21.9,  -23.3,  -23.7,  -24.7,  -25.3,  -26.1,  -26.4,  -26.9,  -27.6,  999.0,  999.0,  999.0,  999.0,    7.1,    6.8,    5.6,    4.1,    3.3,    3.2,    3.3,    3.2,    2.9,    2.7,    2.2,    1.5,    0.8,    0.5,    0.4,    0.5,    0.6,    0.8,    0.9,    0.8,    0.7,    0.8,    0.9,    0.8,    1.1,    1.1,    1.2,    1.0,    0.7,    0.4,    0.4,   -0.0,   -0.0,   -0.4,   -1.0,   -2.0,   -2.6,   -2.8,   -2.7,   -2.7,   -2.6,   -2.5,   -2.6,   -2.7,   -2.8,   -2.9,   -2.8,   -3.0,   -3.3,   -3.6,   -3.9,   -3.9,   -4.1,   -4.7,   -5.4
2012/01/06 15:10,  999.0,    3.8,    4.1,  999.0,  999.0,  999.0,  999.0,  999.0,  -27.4,  -27.9,  -28.5,  -28.4,  999.0,  -19.9,  -29.0,  -29.2,  -28.4,  -27.8,  -27.2,  -26.7,  -26.0,  -24.8,  -24.8,  -24.7,  -24.1,  -23.7,  -22.8,  -22.2,  -21.6,  -21.2,  -20.7,  -20.9,  -21.9,  -22.6,  -23.0,  -23.0,  999.0,  999.0,  999.0,  999.0,  999.0,  999.0,  999.0,    7.1,    6.8,    5.9,    4.6,    3.9,    4.0,    4.0,    3.0,    1.9,    1.5,    1.4,    1.4,    1.2,    0.9,    1.0,    0.8,    1.1,    1.3,    1.2,    1.1,    1.1,    1.0,    0.9,    0.6,    0.7,    0.7,    0.4,    0.2,   -0.0,   -0.2,   -0.3,   -0.3,   -0.7,   -1.2,   -1.5,   -1.4,   -1.1,   -0.7,   -1.2,   -1.9,   -2.2,   -2.3,   -2.4,   -3.0,   -3.5,   -4.1,   -4.2,   -4.0,   -4.2,   -4.3,   -4.1,   -4.0,   -4.0,   -4.1,   -4.2
2012/01/06 15:20,    3.1,    3.6,    4.5,    4.9,    5.5,    6.4,    6.4,    6.6,    7.8,    8.6,    7.8,    7.5,    7.5,    6.9,    7.0,    7.1,    7.1,    7.7,    7.3,  999.0,  999.0,  999.0,  999.0,  -25.5,  -25.9,  -24.6,  -23.3,  -22.5,  -22.1,  -21.9,  -21.5,  -22.0,  -21.8,  -22.3,  -23.1,  -23.1,  -22.7,  -22.7,  999.0,  999.0,  999.0,  999.0,  999.0,  999.0,  999.0,  999.0,    4.2,    4.2,    3.9,    3.3,    2.1,    1.2,    1.0,    1.0,    0.7,    0.5,    0.3,    0.1,    0.4,    0.7,    0.8,    0.8,    0.5,   -0.1,   -0.5,   -0.6,   -0.4,   -0.3,   -0.0,   -0.1,   -0.4,   -0.6,   -1.0,   -1.1,   -1.2,   -1.8,   -2.7,   -2.7,   -3.0,   -3.1,   -3.1,   -2.8,   -2.6,   -2.4,   -2.3,   -2.2,   -2.2,   -2.4,   -2.7,   -3.0,   -3.3,   -4.0,   -4.4,   -4.6,   -4.3,   -4.3,   -4.4,   -4.5
2012/01/06 15:30,    3.6,    3.9,    4.4,    5.1,    5.8,    6.5,    6.5,    7.4,    7.8,    8.1,    8.2,    8.3,    7.8,    7.1,    7.5,    8.1,    7.6,    7.9,    8.0,    7.9,  999.0,  999.0,  999.0,  999.0,  999.0,  999.0,  999.0,  999.0,  -21.6,  -21.0,  -21.6,  -20.8,  -20.9,  -20.9,  -21.8,  -22.1,  -23.5,  999.0,  999.0,  999.0,  999.0,  999.0,    6.6,  999.0,  999.0,  999.0,  999.0,    3.1,    2.6,    2.2,    1.8,    1.6,    1.4,    1.1,    0.8,    0.7,    0.6,    0.6,    0.6,    0.4,   -0.2,   -1.0,   -1.2,   -1.5,   -1.7,   -1.9,   -2.0,   -1.9,   -1.6,   -1.6,   -2.4,   -3.0,   -4.0,   -4.3,   -4.8,   -5.1,   -5.2,   -4.9,   -4.7,   -4.5,   -4.1,   -3.8,   -3.5,   -3.3,   -3.2,   -3.2,   -3.1,   -2.9,   -2.7,   -2.8,   -3.4,   -4.1,   -4.7,   -4.7,   -4.7,   -4.6,   -4.7,   -4.8
2012/01/06 15:40,    2.8,    3.9,    4.5,    5.3,    6.3,    6.2,    6.8,    7.0,    8.1,    8.4,    8.0,    8.3,    7.3,    6.6,    6.8,    7.5,    7.0,    7.5,    8.5,    8.3,  999.0,  999.0,  999.0,  999.0,  999.0,  999.0,  999.0,  999.0,  999.0,  -21.9,  -22.0,  -22.0,  -21.7,  -21.6,  -21.5,  -22.0,  -24.1,  -25.3,  999.0,  999.0,  999.0,  999.0,    6.5,    5.8,  999.0,  999.0,    4.7,    3.4,    3.1,    3.1,    2.9,    2.4,    2.0,    1.5,    1.2,    1.0,    0.9,    1.0,    0.5,   -0.2,   -0.7,   -1.0,   -0.8,   -0.7,   -0.9,   -1.2,   -1.7,   -2.3,   -2.9,   -3.8,   -4.5,   -4.9,   -5.3,   -5.5,   -5.6,   -5.7,   -5.9,   -5.8,   -5.6,   -5.2,   -4.6,   -3.9,   -3.6,   -3.7,   -3.9,   -3.9,   -3.7,   -3.6,   -3.8,   -4.1,   -4.3,   -4.5,   -4.3,   -4.1,   -4.0,   -3.9,   -3.9,   -4.0
2012/01/06 15:50,    3.0,    3.6,    4.8,    6.2,    7.4,    7.7,    6.9,    6.8,    6.9,    7.9,    8.6,    8.5,    8.4,    8.2,    7.9,    7.8,    7.4,    7.0,    6.8,    6.7,    6.6,    6.1,    7.1,  999.0,  999.0,  999.0,  999.0,  999.0,  -22.4,  -21.3,  -21.7,  -21.6,  -20.8,  -20.7,  -20.1,  -20.4,  -21.4,  -23.4,  -24.5,  -24.6,  999.0,  999.0,  999.0,  999.0,  999.0,  999.0,    4.3,    3.0,    2.7,    2.9,    2.6,    1.9,    1.9,    1.6,    1.5,    1.6,    1.6,    1.1,    0.5,    0.1,    0.0,   -0.1,   -0.1,   -0.0,   -0.1,   -0.2,   -0.5,   -1.3,   -2.2,   -3.6,   -4.5,   -5.3,   -5.6,   -5.8,   -5.8,   -5.8,   -5.7,   -5.6,   -5.5,   -5.2,   -4.7,   -4.3,   -4.0,   -3.8,   -3.9,   -4.1,   -4.2,   -4.2,   -4.1,   -4.1,   -4.1,   -4.2,   -4.2,   -4.1,   -4.1,   -4.0,   -4.0,   -3.7
2012/01/06 16:00,    3.1,    3.8,    3.9,    5.7,    7.4,    8.5,    8.7,    7.8,    7.6,    6.9,    6.9,    7.6,    7.9,    7.7,    7.6,    7.5,    7.2,    7.1,    6.3,    6.2,    6.2,    6.1,    5.8,  999.0,  999.0,  999.0,  999.0,  999.0,  -22.3,  -21.2,  -20.7,  -20.8,  -21.3,  -20.5,  -20.7,  -20.9,  -20.7,  -22.0,  -23.6,  999.0,  999.0,  999.0,  999.0,  999.0,  999.0,  999.0,    3.6,    3.2,    2.9,    2.8,    2.5,    2.3,    2.8,    3.0,    2.9,    2.6,    2.0,    1.1,    0.7,    0.7,    0.6,    0.3,    0.2,    0.0,    0.0,    0.1,    0.2,   -0.0,   -0.8,   -2.1,   -3.4,   -4.7,   -5.6,   -5.6,   -5.3,   -5.0,   -4.9,   -5.0,   -5.0,   -4.8,   -4.6,   -4.4,   -4.2,   -4.1,   -4.1,   -4.3,   -4.3,   -4.3,   -4.4,   -4.4,   -4.4,   -4.4,   -4.4,   -4.5,   -4.6,   -4.5,   -4.5,   -4.3
2012/01/06 16:10,    2.4,    2.7,    3.7,    4.8,    6.2,    7.0,    8.3,    8.4,    7.3,    6.8,    6.9,    6.6,    6.5,    7.1,    7.5,    7.6,    7.4,    7.4,    7.0,    6.6,    6.6,    6.5,    6.5,    6.7,    6.8,  999.0,  999.0,  999.0,  999.0,  -23.0,  -22.7,  -22.4,  -22.1,  -21.6,  -21.7,  -20.8,  -20.5,  -20.9,  -22.3,  -24.8,  999.0,  999.0,  999.0,  999.0,  999.0,  999.0,    4.7,    3.9,    3.3,    3.2,    3.0,    3.1,    3.5,    3.7,    3.4,    2.9,    2.3,    1.8,    1.0,    0.5,    0.4,    0.5,    0.7,    0.8,    0.6,    0.3,   -0.1,   -0.3,   -1.1,   -1.9,   -3.0,   -4.1,   -5.3,   -5.9,   -6.1,   -5.7,   -5.1,   -4.7,   -4.6,   -4.7,   -4.8,   -4.9,   -5.1,   -5.3,   -5.3,   -5.2,   -5.1,   -5.0,   -4.8,   -4.7,   -4.6,   -4.6,   -4.6,   -4.4,   -4.2,   -4.4,   -4.4,   -4.6
2012/01/06 16:20,    2.1,    2.9,    3.5,    4.3,    5.1,    5.9,    6.7,    7.8,    8.2,    8.0,    7.0,    6.9,    7.2,    6.6,    6.6,    7.7,    8.1,    7.9,    7.8,    7.7,    7.6,    7.0,    6.9,    7.2,    6.7,    6.1,    6.5,    7.3,    8.0,  999.0,  999.0,  999.0,  999.0,  999.0,  -23.0,  -23.8,  -23.3,  -23.0,  -22.3,  -23.8,  999.0,  999.0,  999.0,  999.0,  999.0,  999.0,  999.0,    4.8,    3.6,    3.1,    3.0,    3.4,    3.5,    3.2,    2.6,    2.3,    2.0,    1.5,    1.0,    0.9,    1.1,    1.4,    1.8,    1.8,    1.6,    1.1,    0.2,   -0.5,   -1.5,   -2.6,   -3.7,   -4.9,   -5.4,   -5.8,   -5.9,   -5.7,   -5.6,   -5.6,   -5.6,   -5.3,   -5.2,   -4.8,   -4.6,   -4.6,   -4.1,   -3.7,   -3.5,   -3.7,   -3.8,   -3.7,   -3.4,   -3.5,   -3.5,   -3.7,   -3.8,   -4.2,   -4.3,   -4.5
2012/01/06 16:30,    1.8,    2.3,    3.0,    4.0,    5.2,    6.0,    5.9,    6.3,    7.0,    7.6,    7.6,    7.6,    7.0,    6.9,    6.0,    6.3,    7.2,    7.2,    7.1,    7.1,    7.2,    6.8,    6.4,    6.5,    6.5,    6.4,    6.3,    6.0,  999.0,  999.0,  999.0,  999.0,  999.0,  999.0,  -25.1,  -24.9,  -24.8,  -23.7,  -23.2,  -24.0,  999.0,  999.0,  999.0,  999.0,  999.0,  999.0,    5.4,    4.6,    3.2,    2.6,    2.7,    3.0,    2.9,    2.8,    2.5,    2.0,    1.6,    1.2,    1.0,    1.3,    1.3,    1.3,    1.5,    1.5,    1.7,    1.7,    0.7,   -0.8,   -2.8,   -4.5,   -5.6,   -6.2,   -6.0,   -5.7,   -5.7,   -5.5,   -5.4,   -5.4,   -5.3,   -5.4,   -5.3,   -5.1,   -5.0,   -4.5,   -4.4,   -4.2,   -3.7,   -3.4,   -3.1,   -2.8,   -2.7,   -2.6,   -2.9,   -3.5,   -4.0,   -4.4,   -4.9,   -5.1
2012/01/06 16:40,    2.1,    3.1,    4.0,    4.5,    6.0,    6.7,    6.3,    6.1,    6.3,    7.2,    8.2,    8.1,    7.9,    7.1,    6.6,    6.6,    7.1,    7.5,    7.1,    6.9,    7.0,    7.0,    6.9,    6.9,    6.3,    6.6,    7.0,    7.2,    7.9,    8.0,  999.0,  999.0,  999.0,  -24.8,  -25.5,  -24.7,  -24.2,  -23.3,  -23.6,  999.0,  999.0,  999.0,  999.0,    5.5,  999.0,  999.0,  999.0,    4.3,    2.7,    2.3,    2.5,    2.8,    2.5,    2.2,    1.8,    1.8,    1.6,    0.9,    0.6,    1.1,    0.8,    0.8,    0.9,    0.6,    0.4,    0.4,    0.0,   -0.6,   -2.2,   -3.9,   -5.3,   -5.7,   -5.5,   -5.2,   -5.3,   -5.1,   -4.8,   -4.2,   -3.6,   -3.0,   -2.2,   -1.4,   -1.0,   -1.0,   -1.1,   -1.2,   -1.3,   -1.3,   -1.4,   -1.5,   -1.8,   -2.0,   -2.6,   -3.5,   -4.4,   -4.8,   -5.1,   -5.4
2012/01/06 16:50,    2.0,    3.0,    3.7,    4.6,    5.2,    5.8,    6.6,    7.2,    6.9,    6.6,    7.0,    7.9,    7.8,    7.8,    7.4,    6.9,    6.5,    6.8,    7.3,    7.1,    6.6,    6.3,    6.7,    7.4,    7.3,    6.7,    6.8,    6.9,    7.3,    8.2,    9.2,  999.0,  999.0,  999.0,  999.0,  999.0,  999.0,  -23.1,  -22.8,  999.0,  999.0,  999.0,  999.0,    5.6,  999.0,  999.0,    3.9,    4.2,    3.1,    2.5,    2.7,    3.1,    3.3,    2.8,    1.8,    1.4,    1.4,    1.1,    1.3,    1.5,    1.0,    0.5,    0.0,   -0.5,   -0.7,   -1.2,   -1.9,   -2.3,   -2.8,   -3.5,   -4.6,   -5.0,   -4.9,   -4.5,   -4.3,   -4.2,   -3.8,   -3.3,   -2.4,   -1.7,   -1.1,   -1.0,   -0.9,   -0.8,   -0.5,   -0.4,   -0.6,   -1.1,   -1.8,   -2.4,   -2.8,   -3.3,   -3.9,   -4.6,   -5.2,   -5.6,   -5.7,   -5.8
2012/01/06 17:00,    2.0,    2.8,    3.4,    4.6,    5.1,    5.2,    6.3,    7.4,    7.2,    6.6,    6.7,    6.7,    8.0,    7.7,    7.1,    6.9,    7.1,    6.2,    6.7,    7.3,    7.0,    6.6,    7.0,    7.8,    8.2,    7.6,    6.9,    7.1,    7.5,    8.1,    8.8,    9.7,   10.7,   11.5,   11.0,  999.0,  999.0,    0.3,  999.0,  999.0,    9.5,  999.0,  999.0,  999.0,  999.0,  999.0,  999.0,    3.8,    3.0,    2.7,    2.9,    3.4,    3.6,    2.9,    2.3,    2.3,    1.8,    1.7,    1.3,    0.8,    0.4,   -0.1,   -0.6,   -1.1,   -1.6,   -2.1,   -2.7,   -3.1,   -3.8,   -4.4,   -4.7,   -4.7,   -4.7,   -4.5,   -4.0,   -3.3,   -2.6,   -1.6,   -1.2,   -0.9,   -0.5,   -0.2,   -0.1,   -0.4,   -0.9,   -1.3,   -1.8,   -2.3,   -2.6,   -2.9,   -3.1,   -3.6,   -4.2,   -4.8,   -5.2,   -5.5,   -5.6,   -5.8
2012/01/06 17:10,    1.9,    2.8,    3.8,    4.4,    5.4,    6.1,    6.6,    7.0,    7.3,    7.5,    7.9,    6.9,    7.5,    8.1,    7.4,    7.3,    7.2,    6.8,    6.9,    7.3,    7.1,    7.6,    7.7,    7.7,    7.8,    7.4,    6.8,    6.7,    6.7,    7.5,    7.9,    9.9,   10.7,   11.4,   12.0,   12.5,  999.0,  999.0,  999.0,   10.0,    8.7,    7.5,    5.7,  999.0,  999.0,  999.0,  999.0,    3.4,    2.7,    2.7,    3.0,    3.3,    2.9,    2.4,    2.2,    1.9,    1.6,    1.0,    0.6,    0.3,    0.1,   -0.4,   -0.7,   -1.1,   -1.3,   -1.4,   -1.5,   -1.9,   -2.4,   -2.7,   -2.5,   -1.9,   -1.3,   -1.0,   -1.0,   -0.8,   -0.5,   -0.4,   -0.5,   -0.5,   -0.3,    0.1,   -0.0,   -0.5,   -1.2,   -1.8,   -2.2,   -2.8,   -3.4,   -3.6,   -3.7,   -4.4,   -5.0,   -5.6,   -5.9,   -6.0,   -6.0,   -5.9
2012/01/06 17:20,    1.5,    2.6,    3.8,    5.4,    6.5,    6.8,    6.5,    6.7,    7.4,    7.6,    8.6,    8.5,    7.4,    7.7,    8.1,    7.2,    7.2,    7.1,    7.6,    7.6,    6.8,    7.0,    7.7,    8.2,    7.6,    6.8,    7.0,    6.7,    7.0,    7.9,    8.2,    9.2,   10.1,   10.5,   11.0,   12.0,   12.2,   12.4,   11.4,    9.1,    6.4,    5.5,    4.6,  999.0,    2.5,  999.0,  999.0,    2.9,    2.4,    2.4,    2.4,    1.5,    1.5,    1.6,    1.5,    1.3,    0.7,    0.4,    0.1,   -0.2,   -0.5,   -0.6,   -0.4,    0.0,    0.8,    1.2,    1.2,    1.1,    1.0,    0.7,    0.3,    0.1,    0.2,    0.3,    0.3,    0.5,    0.5,    0.4,    0.4,    0.4,    0.4,    0.3,   -0.2,   -1.0,   -1.8,   -2.5,   -2.9,   -3.3,   -3.7,   -3.8,   -4.1,   -4.3,   -5.0,   -5.5,   -5.7,   -6.0,   -6.0,   -5.9
2012/01/06 17:30,  999.0,    2.3,    3.4,    4.5,    6.3,    6.5,    6.9,    6.2,    6.4,    7.9,    8.0,    8.5,    8.1,    7.5,    7.7,    8.2,    7.6,    7.3,    7.5,    7.8,    7.8,    7.5,    7.5,    7.8,    8.0,    7.0,    6.6,    7.0,    7.3,    8.1,    8.5,    9.5,   10.2,   11.0,   11.6,   11.6,   12.1,   11.9,   10.3,    7.4,    5.8,    4.4,    3.5,  999.0,    1.6,  999.0,  999.0,    2.2,    2.1,    2.5,    2.4,    1.2,    0.7,    0.8,    0.8,    0.6,    0.5,    0.2,    0.0,   -0.2,   -0.1,    0.2,    0.3,    0.9,    1.2,    1.4,    1.4,    1.5,    1.4,    1.3,    1.1,    1.0,    0.9,    0.8,    0.8,    0.8,    0.8,    0.7,    0.6,    0.5,    0.5,    0.5,    0.1,   -0.4,   -0.8,   -1.7,   -2.8,   -3.6,   -4.2,   -4.4,   -4.2,   -4.2,   -5.0,   -5.5,   -5.8,   -6.1,   -6.3,   -6.1
2012/01/06 17:40,    1.0,    2.3,    3.5,    4.1,    5.6,    6.3,    7.2,    7.4,    6.1,    7.0,    7.7,    7.8,    7.6,    7.6,    7.8,    7.6,    7.9,    7.6,    7.6,    7.1,    7.4,    7.5,    7.7,    7.0,    7.4,    7.2,    6.5,    6.4,    7.1,    8.0,    8.5,    9.5,   11.0,   11.6,   12.1,   12.9,   13.0,   11.9,   10.1,    7.3,    4.7,    4.1,    3.4,    2.4,    1.7,  999.0,  999.0,    2.4,    2.4,    2.6,    2.2,    1.7,    1.5,    1.1,    0.9,    0.7,    0.7,    0.4,    0.3,    0.3,    0.1,    0.2,    0.2,    0.9,    1.5,    1.5,    1.1,    1.1,    1.4,    1.6,    1.2,    1.1,    0.9,    0.9,    1.1,    1.1,    0.9,    0.7,    0.6,    0.5,    0.2,   -0.2,   -0.6,   -1.1,   -1.5,   -2.4,   -3.4,   -4.4,   -5.1,   -5.1,   -4.7,   -4.9,   -5.3,   -5.5,   -5.8,   -6.2,   -6.7,   -6.9
2012/01/06 17:50,  999.0,  999.0,  999.0,    3.7,    5.5,    6.0,    7.1,    8.3,    8.4,    8.4,    7.4,    7.5,    8.1,    8.0,    8.0,    7.9,    7.4,    7.7,    7.9,    8.0,    7.4,    7.4,    7.8,    8.0,    7.7,    7.8,    7.5,    7.1,    7.5,    7.9,    8.5,    9.8,   10.8,   11.8,   12.3,   12.9,   12.8,   11.6,    8.6,    5.7,    4.6,    3.8,    3.3,    2.3,    2.4,  999.0,  999.0,    2.1,    2.1,    1.8,    1.4,    1.2,    1.0,    1.1,    1.3,    1.3,    1.0,    0.9,    0.6,    0.5,    0.4,    0.2,    0.1,    0.5,    1.3,    1.7,    1.5,    1.2,    1.1,    1.0,    0.8,    0.8,    0.9,    0.8,    0.8,    0.8,    0.5,    0.3,    0.2,   -0.0,   -0.6,   -1.4,   -2.6,   -3.2,   -3.5,   -3.7,   -4.1,   -4.6,   -5.1,   -5.0,   -5.0,   -5.3,   -5.6,   -6.1,   -6.2,   -6.5,   -7.1,   -7.4
2012/01/06 18:00,  999.0,  999.0,  999.0,  999.0,  999.0,    6.3,    7.2,    7.8,    8.0,    8.6,    8.8,    8.4,    7.9,    8.5,    7.7,    7.2,    7.5,    7.5,    7.7,    7.8,    8.0,    7.5,    7.5,    7.3,    7.6,    7.6,    7.3,    7.4,    7.9,    8.0,    9.1,    9.5,   10.2,   10.8,   11.5,   12.2,   12.5,   11.3,    8.7,    5.8,    4.9,    4.3,    4.1,    3.0,    2.3,  999.0,    2.2,    1.9,    2.1,    2.6,    2.6,    2.0,    2.0,    1.8,    1.7,    1.7,    1.8,    1.5,    1.3,    1.0,    0.6,    0.5,    0.4,    0.8,    1.3,    1.7,    1.7,    1.6,    1.3,    0.8,    0.5,    0.4,    0.6,    0.4,    0.6,    0.2,   -0.4,   -0.7,   -0.9,   -1.0,   -1.2,   -1.7,   -2.3,   -3.3,   -3.9,   -4.3,   -4.7,   -5.0,   -5.1,   -4.9,   -4.8,   -5.2,   -6.1,   -6.5,   -6.8,   -7.2,   -7.7,   -8.1
2012/01/06 18:10,  999.0,    2.4,    2.4,    2.7,    3.5,    4.7,    6.1,    6.6,    7.3,    8.0,    8.5,    9.3,    8.2,    7.5,    8.2,    8.2,    6.9,    7.3,    7.6,    7.9,    8.3,    8.3,    7.7,    7.4,    7.4,    7.8,    7.8,    7.9,    8.2,    8.5,    9.4,   10.4,   11.1,   11.3,   11.8,   12.1,   12.3,   11.0,    7.4,    4.7,    3.7,    2.4,  999.0,  999.0,  999.0,  999.0,  999.0,  999.0,    2.6,    3.0,    3.2,    2.9,    2.6,    2.5,    2.0,    1.7,    1.9,    2.0,    2.0,    2.1,    1.3,    0.5,    0.3,    0.6,    1.3,    1.8,    1.7,    1.7,    1.9,    1.5,    0.8,    0.2,    0.0,    0.2,    0.1,   -0.3,   -0.7,   -0.9,   -0.9,   -0.9,   -1.0,   -1.1,   -1.2,   -1.8,   -3.0,   -3.9,   -4.0,   -3.9,   -3.9,   -4.1,   -4.6,   -5.3,   -5.9,   -6.5,   -7.1,   -7.4,   -8.0,   -8.3
2012/01/06 18:20,  999.0,  999.0,  999.0,  999.0,  999.0,  999.0,  999.0,    6.7,    7.6,    8.0,    8.4,    9.1,    9.3,    8.5,    8.3,    9.3,    8.3,    7.6,    8.3,    9.0,    9.1,    8.7,    8.6,    7.7,    7.6,    7.8,    8.1,    8.2,    9.0,    9.1,   10.5,   11.0,   11.6,   11.8,   11.9,   12.3,   12.2,   11.7,    9.0,    5.8,    4.5,    3.9,    4.1,  999.0,    4.0,    3.5,  999.0,    2.6,    2.5,    2.7,    3.0,    3.0,    3.0,    3.1,    3.0,    2.8,    2.6,    2.8,    2.9,    3.2,    2.9,    2.1,    1.3,    1.1,    1.2,    1.8,    2.1,    2.2,    2.2,    2.1,    1.6,    0.9,    0.3,    0.2,    0.1,   -0.0,   -0.5,   -0.8,   -0.7,   -0.9,   -1.1,   -1.1,   -1.0,   -1.0,   -1.5,   -2.1,   -2.6,   -2.8,   -3.1,   -3.7,   -4.4,   -5.4,   -6.3,   -6.9,   -7.2,   -7.4,   -8.0,   -8.6
2012/01/06 18:30,  999.0,  999.0,  999.0,  999.0,  999.0,    4.7,    6.2,    6.2,    7.0,    7.4,    8.1,    8.6,    8.7,    8.1,    8.0,    8.2,    8.6,    8.5,    8.3,    8.3,    8.8,    8.6,    8.6,    8.4,    7.9,    8.5,    8.8,    8.3,    8.5,    8.8,    9.8,   10.2,   10.5,   10.7,   10.9,   11.4,   11.8,   11.7,    9.6,    7.1,    6.3,  999.0,    6.1,  999.0,    4.6,    4.7,    3.9,    3.0,    2.9,    3.1,    3.3,    3.3,    3.4,    3.7,    3.9,    3.6,    3.8,    3.9,    3.7,    3.7,    3.5,    2.8,    2.2,    2.0,    1.9,    1.9,    2.1,    2.4,    2.3,    2.3,    1.8,    1.2,    0.8,    0.4,   -0.0,   -0.2,   -0.4,   -0.7,   -0.9,   -0.9,   -1.2,   -1.4,   -1.6,   -1.2,   -0.9,   -1.0,   -1.2,   -1.6,   -2.4,   -3.3,   -4.1,   -4.8,  999.0,  999.0,  999.0,  999.0,  999.0,  999.0
2012/01/06 18:40,  999.0,  999.0,  999.0,    2.9,    4.2,    5.1,    5.8,    6.4,    6.6,    6.7,    7.5,    8.2,    7.9,    7.8,    7.9,    8.3,    8.6,    8.7,    8.3,    8.0,    8.1,    8.2,    8.6,    7.8,    7.9,    8.0,    8.2,    8.1,    8.2,    8.5,    9.1,    9.5,    9.9,   10.1,   10.3,   10.5,   10.8,   11.3,   10.7,    7.5,    4.8,    4.3,    4.8,    4.1,    3.7,  999.0,  999.0,    3.7,    3.3,    3.1,    3.2,    3.0,    2.9,    3.4,    3.7,    3.4,    4.0,    4.0,    3.7,    3.5,    3.1,    2.7,    2.3,    2.1,    1.8,    1.8,    2.1,    2.4,    2.7,    2.5,    2.1,    1.8,    1.3,    0.9,    0.4,    0.1,   -0.1,   -0.3,   -0.7,   -0.7,   -0.8,   -1.4,   -2.0,   -1.8,   -1.2,   -0.7,   -0.5,   -1.1,   -1.7,   -2.7,  999.0,  999.0,  999.0,  999.0,  999.0,  999.0,  999.0,  999.0
2012/01/06 18:50,  999.0,    2.2,    3.3,    4.0,    4.3,    5.5,    6.5,    7.1,    7.0,    7.0,    7.8,    8.2,    8.6,    8.4,    8.1,    7.9,    8.1,    8.2,    7.9,    7.6,    7.9,    8.4,    8.3,    8.2,    8.1,    8.3,    8.8,    8.8,    8.6,    8.9,    9.1,    9.9,   10.6,   10.6,   10.7,   10.6,   10.8,   11.2,   10.5,    7.4,    4.8,    5.1,    4.7,    3.5,    3.0,  999.0,  999.0,    4.3,    3.8,    3.3,    3.1,    3.1,    3.1,    3.1,    3.8,    4.4,    4.7,    4.9,    4.3,    3.5,    3.0,    2.6,    2.6,    2.4,    2.0,    1.8,    2.1,    2.6,    2.7,    2.6,    2.5,    2.1,    1.6,    1.0,    0.3,    0.0,   -0.3,   -0.6,   -0.9,   -0.9,   -1.0,   -1.4,   -1.7,   -1.5,   -0.9,   -0.4,    0.0,  999.0,  999.0,  999.0,  999.0,  999.0,  999.0,  999.0,  999.0,  999.0,  999.0,  999.0
2012/01/06 19:00,  999.0,  999.0,    4.2,    3.8,    4.1,    4.7,    6.0,    6.8,    7.2,    7.4,    7.7,    8.1,    8.4,    8.3,    7.9,    7.4,    7.5,    7.7,    7.4,    7.5,    7.7,    7.8,    7.5,    8.3,    8.2,    8.3,    8.4,    8.6,    8.8,    8.7,    9.3,   10.2,   10.7,   10.9,   11.4,   11.2,   11.0,   11.3,   10.8,    7.9,    5.7,    5.2,    5.0,    3.1,    2.7,  999.0,  999.0,    4.8,    4.5,    4.0,    3.6,    3.4,    3.6,    3.6,    3.6,    4.3,    4.9,    5.0,    4.6,    4.0,    3.3,    3.1,    2.9,    3.2,    2.6,    2.4,    2.4,    2.7,    2.8,    2.7,    2.2,    1.5,    1.0,    0.6,    0.2,   -0.0,   -0.5,   -0.7,   -0.8,   -0.7,   -1.0,   -1.2,   -1.2,   -0.2,   -0.3,    0.1,  999.0,  999.0,  999.0,  999.0,  999.0,  999.0,  999.0,  999.0,  999.0,  999.0,  999.0,  999.0
2012/01/06 19:10,  999.0,    2.3,    2.5,    2.9,    3.5,    4.1,    5.2,    6.3,    6.5,    6.6,    7.0,    7.8,    8.3,    7.9,    7.9,    7.5,    7.5,    7.9,    7.8,    8.2,    8.5,    8.3,    8.3,    8.7,    8.8,    8.4,    8.5,    9.1,    8.9,    8.7,    9.4,    9.6,   10.0,   10.3,   10.9,   11.0,   11.4,   12.0,   11.4,   10.4,    7.4,    5.9,    5.2,    5.0,    4.0,  999.0,  999.0,  999.0,    5.0,    4.8,    4.4,    3.7,    3.7,    3.7,    4.0,    4.4,    4.9,    5.2,    4.7,    4.4,    3.8,    3.4,    3.4,    3.8,    3.5,    3.1,    3.3,    3.2,    3.1,    2.9,    2.1,    1.3,    0.7,    0.3,    0.0,   -0.4,   -0.6,   -0.7,   -0.8,   -1.1,   -1.5,   -1.5,   -1.4,   -0.7,   -0.1,    0.4,    0.2,   -0.0,   -0.1,  999.0,  999.0,  999.0,  999.0,  999.0,  999.0,  999.0,  999.0,  999.0
2012/01/06 19:20,  999.0,    1.8,    2.3,    3.0,    3.9,    4.2,    5.4,    6.0,    6.3,    6.7,    6.7,    7.6,    7.9,    7.7,    7.8,    7.8,    7.5,    7.6,    7.8,    8.7,    8.7,    8.5,    8.6,    8.7,    8.7,    8.3,    9.0,    9.3,    9.3,    9.1,    9.1,   10.1,    9.3,    9.6,   10.2,   10.4,   11.3,   11.5,   11.6,   10.3,    7.9,    5.7,    4.4,    4.6,  999.0,  999.0,  999.0,    3.8,    4.2,    4.3,    4.3,    3.9,    3.6,    3.6,    3.7,    3.9,    4.4,    4.4,    3.7,    3.8,    3.6,    3.7,    4.2,    4.4,    3.9,    3.5,    3.5,    3.2,    3.1,    2.8,    1.5,    0.5,    0.1,   -0.2,   -0.2,   -0.3,   -0.3,   -0.4,   -0.6,   -0.9,   -1.2,   -0.9,   -0.5,   -0.4,   -0.2,    0.0,    0.7,    0.0,  999.0,  999.0,  999.0,  999.0,  999.0,  999.0,  999.0,  999.0,  999.0,  999.0
2012/01/06 19:30,  999.0,  999.0,  999.0,    2.7,    3.9,    4.4,    5.8,    6.1,    5.7,    6.5,    6.8,    7.5,    7.8,    8.0,    7.8,    8.2,    8.4,    8.5,    7.6,    7.5,    7.8,    7.9,    8.2,    8.7,    8.3,    8.2,    9.2,    9.3,    9.2,    9.3,   10.5,   10.3,    9.8,    9.9,   10.2,   10.2,   10.5,   10.9,   11.2,   10.0,    7.8,    5.8,    4.7,    4.5,    3.2,    2.5,    2.8,    3.1,    3.2,    3.7,    4.0,    3.8,    3.8,    3.9,    3.9,    4.1,    4.7,    4.5,    3.9,    2.8,    2.4,    2.7,    3.5,    3.7,    3.4,    3.4,    3.2,    2.8,    2.8,    2.6,    1.8,    0.6,   -0.2,   -0.3,   -0.2,   -0.4,   -0.5,   -0.7,   -1.1,   -1.4,   -1.7,   -1.9,   -2.1,   -2.5,   -2.7,   -1.9,  999.0,  999.0,  999.0,  999.0,  999.0,  999.0,  999.0,  999.0,  999.0,  999.0,  999.0,  999.0
2012/01/06 19:40,  999.0,  999.0,  999.0,  999.0,  999.0,  999.0,  999.0,  999.0,  999.0,  999.0,  999.0,    8.2,    8.1,    7.9,    7.7,    8.3,    8.7,    9.1,    8.8,    8.7,    9.2,    8.9,    9.1,    9.4,    8.5,    9.0,    8.9,    8.6,    9.0,    9.9,    9.9,    8.9,    8.9,    9.1,    9.6,    9.8,   10.5,   10.9,   11.6,   11.0,    8.9,    6.5,    5.6,    4.8,    3.8,    2.6,  999.0,    2.6,    2.7,    3.0,    3.2,    3.3,    3.5,    3.5,    3.7,    3.8,    3.9,    3.6,    3.0,    1.9,    1.6,    2.1,    2.8,    3.0,    3.0,    3.2,    2.9,    2.6,    2.5,    2.2,    1.8,    0.7,   -0.3,   -0.5,   -0.3,   -0.4,   -0.6,   -0.9,   -1.4,   -1.8,   -1.8,   -2.0,   -2.3,   -2.6,  999.0,  999.0,  999.0,  999.0,  999.0,  999.0,  999.0,  999.0,  999.0,  999.0,  999.0,  999.0,  999.0,  999.0
2012/01/06 19:50,  999.0,  999.0,  999.0,  999.0,  999.0,  999.0,    0.9,  999.0,   -0.8,   -0.3,    2.7,    2.5,    4.0,    3.9,    3.1,    3.8,    3.1,    4.6,    5.4,    9.1,    8.9,    5.2,    3.7,    5.2,    4.6,    5.4,    5.1,    5.3,    5.2,   10.1,    9.9,    9.4,    9.3,    9.7,    9.7,   10.2,   10.7,   10.8,   11.3,   11.4,    9.0,    7.4,    6.2,    5.5,    4.5,    2.6,  999.0,  999.0,    1.1,    1.6,    1.7,    2.0,    2.4,    2.6,    2.7,    2.7,    2.9,    2.4,    2.0,    1.4,    1.6,    2.1,    2.7,    3.0,    3.0,    3.1,    2.9,    2.8,    2.7,    2.4,    2.2,    1.6,    0.8,    0.3,    0.3,   -0.0,   -0.6,   -1.1,   -1.6,   -1.8,   -1.8,   -2.1,   -2.0,   -2.4,  999.0,  999.0,  999.0,  999.0,  999.0,  999.0,  999.0,  999.0,  999.0,  999.0,  999.0,  999.0,  999.0,  999.0
2012/01/06 20:00,  999.0,   -4.8,   -3.7,   -4.1,   -3.3,   -1.9,   -1.9,   -0.2,   -0.4,   -0.7,   -0.1,    0.8,    1.1,    1.2,    0.8,    1.1,    1.8,    2.3,    2.2,    2.9,    2.3,    1.6,    1.6,    1.2,    1.6,    1.8,    1.8,    1.8,  999.0,  999.0,  999.0,  999.0,    9.1,    9.7,   10.0,   10.5,   10.7,   11.3,   12.3,   12.2,    9.7,    7.6,    6.2,    5.1,    4.2,    2.3,  999.0,  999.0,    1.0,    1.2,    1.5,    1.5,    1.7,    1.8,    1.8,    1.8,    1.9,    1.6,    1.5,    1.3,    1.7,    1.9,    1.8,    2.3,    2.5,    2.5,    2.5,    2.5,    2.6,    2.5,    2.0,    1.3,    0.9,   -0.0,  999.0,  999.0,  999.0,  999.0,  999.0,  999.0,  999.0,  999.0,  999.0,  999.0,  999.0,  999.0,  999.0,  999.0,  999.0,  999.0,  999.0,  999.0,  999.0,  999.0,  999.0,  999.0,  999.0,  999.0
2012/01/06 20:10,   -5.3,   -6.1,   -4.6,   -5.2,   -3.1,   -3.0,   -1.9,   -0.4,    0.1,    0.1,    0.6,    1.3,    2.0,    2.4,    2.1,    2.2,    2.7,    2.9,    3.4,    3.6,  999.0,  999.0,  999.0,  999.0,  999.0,  999.0,  999.0,  999.0,  999.0,  999.0,  999.0,  999.0,  999.0,  999.0,  999.0,  999.0,    7.6,   10.0,   10.3,   11.5,    9.3,    6.6,    5.6,    4.9,    4.2,    1.8,  999.0,    0.6,    2.6,    2.4,    2.5,    2.3,    1.7,    1.5,    1.5,    1.4,    1.1,    1.2,    1.3,    1.4,    2.0,    2.0,    1.8,    2.1,    2.1,    2.0,    2.0,    2.3,    2.2,    2.4,    2.3,    1.2,  999.0,  999.0,  999.0,  999.0,  999.0,  999.0,  999.0,  999.0,  999.0,  999.0,  999.0,  999.0,  999.0,  999.0,  999.0,  999.0,  999.0,  999.0,  999.0,  999.0,  999.0,  999.0,  999.0,  999.0,  999.0,  999.0
2012/01/06 20:20,  999.0,    0.9,    2.9,  999.0,    4.3,  999.0,  999.0,    6.3,  999.0,    4.7,    4.9,    7.7,    7.7,    8.4,    8.0,    7.9,    8.4,    8.0,    8.7,    7.9,    8.5,    8.4,    8.1,    7.6,    7.7,    8.5,    7.1,    7.9,    8.5,    9.2,   10.3,   10.5,    9.8,   10.2,  999.0,  999.0,    4.1,    8.6,   10.3,    9.8,    9.6,    7.2,    6.0,    5.4,    5.1,    3.8,  999.0,  999.0,    2.6,    3.6,    4.2,    3.7,    2.8,    2.1,    1.7,    1.3,    0.9,    0.8,    1.0,    1.0,    1.2,    1.2,    1.4,    1.4,    1.5,    1.7,    1.7,    2.0,    2.3,    2.0,    1.8,    1.4,    0.7,    0.6,  999.0,  999.0,  999.0,  999.0,  999.0,  999.0,  999.0,  999.0,  999.0,  999.0,  999.0,  999.0,  999.0,  999.0,  999.0,  999.0,  999.0,  999.0,  999.0,  999.0,  999.0,  999.0,  999.0,  999.0
2012/01/06 20:30,    1.2,    2.5,    3.2,    3.7,    4.4,    4.1,    5.2,    5.9,    7.1,    7.3,    7.2,    7.4,    8.1,    8.2,    8.1,    8.3,    8.5,    8.7,    8.3,    8.5,  999.0,    8.1,    7.5,    7.7,    7.4,    8.0,    6.5,    7.1,    8.0,    8.9,  999.0,  999.0,  999.0,  999.0,  999.0,  999.0,   10.3,   10.2,   10.9,   11.0,   11.0,    8.8,    6.9,    6.6,    5.9,  999.0,  999.0,  999.0,  999.0,    4.3,    5.1,    4.5,    3.4,    2.9,    2.1,    1.6,    1.3,    1.3,    1.5,    1.6,    1.8,    1.8,    1.9,    1.8,    1.8,    1.6,    2.0,    3.1,  999.0,    2.9,  999.0,  999.0,  999.0,  999.0,  999.0,  999.0,  999.0,  999.0,  999.0,  999.0,  999.0,  999.0,  999.0,  999.0,  999.0,  999.0,  999.0,  999.0,  999.0,  999.0,  999.0,  999.0,  999.0,  999.0,  999.0,  999.0,  999.0,  999.0
2012/01/06 20:40,    0.8,    2.3,    1.5,  999.0,    3.7,    3.6,    5.1,    6.1,    7.4,    7.6,    7.1,    7.3,    7.7,    8.2,    7.8,    7.9,    8.0,    8.1,  999.0,    7.7,    7.8,  999.0,    7.4,    7.9,  999.0,    7.6,    8.1,    6.7,    7.8,  999.0,  999.0,  999.0,  999.0,  999.0,  999.0,   11.5,   12.6,   12.5,   11.7,   11.3,   10.6,   10.0,    8.6,    7.2,  999.0,    5.7,  999.0,  999.0,    4.2,    5.3,    5.7,    5.1,    4.5,    4.5,    3.4,    2.5,    2.0,    2.0,    1.8,    1.8,    2.1,    1.8,    1.9,    2.0,    1.6,    1.5,    1.9,    2.3,    2.8,    2.9,    2.2,    0.8,  999.0,    1.0,  999.0,  999.0,  999.0,  999.0,  999.0,  999.0,  999.0,  999.0,  999.0,  999.0,  999.0,  999.0,  999.0,  999.0,  999.0,  999.0,  999.0,  999.0,  999.0,  999.0,  999.0,  999.0,  999.0,  999.0
2012/01/06 20:50,    1.1,    1.8,    0.7,    3.1,    4.5,    4.0,    4.2,    5.4,    6.2,    7.1,    7.6,    7.2,    7.8,    8.5,    7.8,    7.7,    7.8,    7.5,    7.6,    7.9,    7.9,  999.0,    7.2,    7.7,    7.3,    7.6,  999.0,  999.0,    7.5,    8.9,  999.0,  999.0,  999.0,  999.0,  999.0,   10.8,   11.6,   12.0,   12.6,   12.7,   12.5,   12.1,   10.8,    9.5,  999.0,    6.2,  999.0,  999.0,    3.5,    5.8,    6.6,    5.5,    4.4,    4.6,    4.1,    2.9,    1.9,    1.6,    1.6,    1.7,    1.8,    1.8,    2.1,    2.2,    2.0,    1.6,    1.4,    1.7,    3.0,    2.4,    2.1,  999.0,  999.0,  999.0,  999.0,  999.0,  999.0,  999.0,  999.0,  999.0,  999.0,  999.0,  999.0,  999.0,  999.0,  999.0,  999.0,  999.0,  999.0,  999.0,  999.0,  999.0,  999.0,  999.0,  999.0,  999.0,  999.0,  999.0
2012/01/06 21:00,  999.0,    0.6,    2.9,    3.1,    4.0,    4.5,    4.8,    5.2,    5.6,    6.5,    7.2,    7.9,    7.8,    7.3,    7.6,    7.4,    7.6,    7.7,    7.5,    7.6,  999.0,  999.0,    7.4,    8.5,  999.0,    8.6,  999.0,  999.0,    9.0,   10.1,    9.4,  999.0,  999.0,  999.0,  999.0,    8.6,    9.6,   10.5,   11.4,   12.1,   12.2,   12.2,   11.5,    9.7,  999.0,    6.6,  999.0,  999.0,    3.3,    5.5,    6.3,    5.2,    3.6,    3.7,    3.8,    3.0,    2.3,    1.8,    1.9,    1.6,    1.7,    1.6,    1.7,    1.5,    1.3,    1.4,    1.5,    1.7,    1.8,    2.3,  999.0,  999.0,  999.0,  999.0,  999.0,  999.0,  999.0,  999.0,  999.0,  999.0,  999.0,  999.0,  999.0,  999.0,  999.0,  999.0,  999.0,  999.0,  999.0,  999.0,  999.0,  999.0,  999.0,  999.0,  999.0,  999.0,  999.0,  999.0
2012/01/06 21:10,    0.5,    1.1,    2.2,    3.2,  999.0,  999.0,    4.6,    5.5,    6.1,    6.0,    6.8,    7.4,    8.6,    8.2,    7.7,    7.8,    7.9,    8.3,  999.0,    8.1,    7.8,    8.1,  999.0,    8.5,    8.1,    8.9,  999.0,    8.1,    9.0,    9.6,  999.0,  999.0,  999.0,  999.0,  999.0,  999.0,    9.4,    9.5,   10.2,   10.6,   11.1,   11.0,   11.2,    9.8,  999.0,  999.0,  999.0,  999.0,  999.0,    6.3,    7.2,    5.8,    4.4,    4.4,    3.9,    3.2,    2.7,    2.5,    2.2,    1.7,    1.6,    1.7,    1.6,    1.5,    1.4,    1.8,    2.7,    2.7,    2.2,  999.0,  999.0,  999.0,  999.0,  999.0,  999.0,  999.0,  999.0,  999.0,  999.0,  999.0,  999.0,  999.0,  999.0,  999.0,  999.0,  999.0,  999.0,  999.0,  999.0,  999.0,  999.0,  999.0,  999.0,  999.0,  999.0,  999.0,  999.0,  999.0
2012/01/06 21:20,  999.0,    1.7,    2.0,  999.0,    4.1,    4.0,    4.9,    6.0,    6.7,    6.8,    7.4,    7.7,    8.5,    8.2,    7.9,    8.2,    8.1,    9.0,    8.9,    8.7,  999.0,  999.0,    6.8,    9.0,    8.0,    9.3,    9.3,    8.6,    9.1,    9.8,    8.0,   11.3,    9.1,    9.1,    9.0,   10.6,   11.5,   11.7,   11.5,   11.7,   11.7,   11.8,   11.8,   11.5,    8.5,  999.0,  999.0,    5.3,    3.7,    5.5,    6.1,    5.1,    4.7,    4.0,    2.9,    2.7,    2.5,    2.3,    2.0,    1.5,    1.2,    1.3,    1.2,    0.8,    1.0,    1.7,    2.3,    1.8,  999.0,    1.0,    1.7,  999.0,  999.0,  999.0,  999.0,  999.0,  999.0,  999.0,  999.0,  999.0,  999.0,  999.0,  999.0,  999.0,  999.0,  999.0,  999.0,  999.0,  999.0,  999.0,  999.0,  999.0,  999.0,  999.0,  999.0,  999.0,  999.0,  999.0
2012/01/06 21:30,    0.7,    1.2,    1.3,    2.3,    3.5,    4.1,    5.0,    5.9,    6.2,    6.9,    6.5,    7.0,    7.1,    7.9,  999.0,  999.0,  999.0,  999.0,  999.0,  999.0,    8.0,    7.8,    8.4,    8.5,    9.1,    9.4,    9.5,    8.6,    9.0,   10.1,   10.3,   11.0,   11.2,   10.5,   10.2,   10.6,   10.9,   11.3,   11.2,   11.5,   11.6,   11.2,   10.8,   10.2,    8.2,  999.0,  999.0,    4.3,    3.8,    4.9,    6.1,    5.7,    5.2,    3.9,    3.3,    2.8,    2.8,    2.5,    1.8,    1.3,    1.0,    1.0,    0.8,    0.4,    0.7,    1.4,    2.0,  999.0,  999.0,  999.0,  999.0,  999.0,  999.0,  999.0,  999.0,  999.0,  999.0,  999.0,  999.0,  999.0,  999.0,  999.0,  999.0,  999.0,  999.0,  999.0,  999.0,  999.0,  999.0,  999.0,  999.0,  999.0,  999.0,  999.0,  999.0,  999.0,  999.0,  999.0
2012/01/06 21:40,  999.0,  999.0,    1.2,  999.0,    4.0,  999.0,  999.0,    5.4,    6.1,    6.7,    6.8,    6.8,    6.9,    7.5,    7.8,    7.8,    7.7,    7.6,    7.8,    8.1,    7.6,    7.9,    7.8,    7.9,    8.4,    8.3,  999.0,    8.3,    9.5,    9.9,  999.0,  999.0,  999.0,   11.3,  999.0,   10.4,    9.8,   10.1,   10.2,   10.5,   10.7,   10.7,   10.7,    9.8,    6.9,  999.0,  999.0,  999.0,    3.6,    5.1,    5.9,    5.8,    5.6,    3.9,    3.7,    3.5,    3.3,    3.0,    2.3,    1.6,    1.4,    1.5,    1.3,  999.0,  999.0,  999.0,  999.0,  999.0,  999.0,  999.0,  999.0,  999.0,  999.0,  999.0,    1.1,    0.4,  999.0,  999.0,  999.0,  999.0,  999.0,  999.0,  999.0,  999.0,  999.0,  999.0,  999.0,  999.0,  999.0,  999.0,   -3.1,   -4.5,   -5.7,   -7.0,   -7.0,  999.0,   -8.3,   -8.3
2012/01/06 21:50,  999.0,  999.0,    0.8,    1.8,    3.7,    4.0,    5.0,    5.7,    6.2,    6.5,    6.9,    7.2,    7.0,    7.5,    8.1,    8.4,    7.7,    7.7,    7.9,    8.1,    8.1,    8.3,    7.5,  999.0,    8.6,    8.9,  999.0,    7.2,    8.2,    9.7,    9.9,  999.0,   11.7,   11.8,   11.1,    9.7,    9.6,    9.7,    9.7,   10.1,   10.5,   10.8,   11.1,   10.6,  999.0,  999.0,  999.0,  999.0,    4.2,    4.3,    5.4,    6.0,    5.8,    4.5,    4.1,    4.1,    3.6,    3.1,    2.4,    1.6,  999.0,  999.0,  999.0,  999.0,  999.0,  999.0,    2.6,    3.2,    3.1,    2.4,    2.2,    2.1,    1.5,    1.5,    1.5,    1.0,    0.3,   -0.5,  999.0,  999.0,  999.0,  999.0,  999.0,  999.0,  999.0,   -1.1,   -1.4,   -2.0,   -2.3,   -2.6,   -3.1,   -4.3,  999.0,   -7.1,   -7.9,   -8.1,  999.0,  999.0
2012/01/06 22:00,  999.0,   -0.3,  999.0,  999.0,    3.5,    4.6,    5.4,    6.1,    6.4,    7.0,    6.7,    7.5,    8.4,  999.0,    7.8,    8.3,    8.2,    7.5,    7.6,    7.7,  999.0,    7.3,    7.6,    8.0,    8.3,    8.5,  999.0,    7.4,    8.4,    9.2,    9.4,    9.9,  999.0,  999.0,  999.0,    8.5,    9.1,   10.0,   10.2,    9.9,   10.0,   10.5,   11.1,   10.6,  999.0,  999.0,  999.0,  999.0,    5.2,    4.4,    4.9,    5.9,    5.9,  999.0,    4.2,    4.4,    3.7,    3.1,    2.7,    2.4,    1.9,    1.8,    1.7,    1.6,    1.7,    2.3,    2.6,    3.0,    3.6,    3.1,    2.5,    2.4,    2.0,    1.6,    1.3,    0.3,   -0.5,   -1.0,   -1.3,   -1.9,   -2.0,   -2.2,   -2.1,   -2.2,   -2.0,   -1.5,   -1.7,   -2.4,   -2.9,   -3.3,   -3.7,   -5.4,   -6.7,   -7.4,   -7.9,   -8.3,   -8.3,   -8.6
2012/01/06 22:10,    0.0,    0.8,    1.9,  999.0,    2.9,    4.5,    5.7,    6.1,    6.4,  999.0,    6.8,    6.8,    7.3,    7.3,    7.3,    7.8,    7.4,    7.8,    7.8,  999.0,  999.0,    7.1,    7.4,    7.3,    7.9,    8.1,    7.1,    7.4,    8.3,    9.1,    9.3,   10.9,  999.0,  999.0,  999.0,  999.0,  999.0,   11.4,   11.7,   12.1,   12.6,   12.5,   10.7,   11.0,    9.8,    8.1,    5.6,    5.3,    5.5,    4.9,    3.8,    4.5,    4.7,    4.6,    4.5,    4.6,    3.9,    3.2,    2.9,    2.5,    2.0,    1.6,    1.5,    1.6,    1.7,    1.9,    2.3,    2.7,    3.2,    3.2,    2.7,    2.4,    2.1,    1.4,    1.0,    0.4,   -0.2,   -0.9,   -1.3,   -1.7,   -2.0,   -2.1,   -2.3,   -2.3,   -2.4,   -1.8,   -1.9,   -2.9,   -3.3,   -3.8,   -4.5,   -5.4,   -6.4,   -7.1,   -7.5,   -7.7,   -7.6,   -8.0
2012/01/06 22:20,    0.7,    0.2,    1.5,    2.2,    3.3,    3.7,    4.9,    5.9,    6.2,  999.0,    6.3,    6.6,    7.0,  999.0,    7.2,    7.2,    7.4,    7.2,    7.6,  999.0,    7.5,    6.9,    7.4,    6.7,    7.3,  999.0,  999.0,    7.6,    8.9,    9.4,   10.8,  999.0,  999.0,  999.0,  999.0,  999.0,  999.0,    9.7,    9.2,    8.7,    8.7,    9.9,   11.1,    9.7,   10.3,    7.9,    6.9,    6.8,  999.0,    6.3,    5.7,    5.0,    4.9,    5.1,    5.3,    5.1,    4.7,    3.8,    3.5,    3.7,    3.7,    3.2,    2.5,    2.2,    2.2,    2.2,    2.5,    2.9,    3.7,    4.3,    4.1,    3.6,    3.2,    2.4,    1.9,    1.1,    0.3,   -0.3,   -0.8,   -1.2,   -1.5,   -1.9,   -2.5,   -2.7,   -2.7,   -2.3,   -1.9,   -2.4,   -3.0,   -3.5,   -4.3,   -5.4,   -6.2,   -6.9,   -7.3,   -7.5,   -7.5,   -7.7
2012/01/06 22:30,  999.0,  999.0,  999.0,  999.0,    3.2,    3.4,    4.9,    5.5,    6.1,  999.0,  999.0,    5.8,    6.5,    6.7,    6.8,  999.0,  999.0,    7.8,    7.5,  999.0,    7.2,  999.0,    6.2,  999.0,  999.0,  999.0,  999.0,    7.1,    7.5,    8.2,  999.0,  999.0,  999.0,  999.0,  999.0,  999.0,  999.0,  999.0,   10.0,    9.7,    9.0,    8.6,    9.3,   10.0,    9.7,    8.4,    7.8,    7.6,    7.2,    6.6,    5.9,    5.4,    5.3,    5.2,    5.4,    5.6,    5.4,    4.7,    4.4,    4.4,    4.1,    3.6,    2.9,    2.5,    2.3,    2.1,    2.2,    2.7,    3.2,    3.9,    3.9,    3.6,    3.4,    2.8,    2.2,    1.6,    0.5,   -0.3,   -0.9,   -1.5,   -2.0,   -2.4,   -2.9,   -3.1,   -2.9,   -2.6,   -2.2,   -2.5,   -3.2,   -3.9,   -4.9,   -5.7,   -6.6,   -7.4,   -7.8,   -8.1,   -8.3,   -7.4
2012/01/06 22:40,    0.8,    0.8,  999.0,  999.0,    3.1,    3.7,    4.6,    5.5,    6.1,    6.6,    7.7,  999.0,    5.7,    6.3,    6.1,    5.9,    6.5,  999.0,  999.0,    6.7,    6.8,    6.5,    6.4,    6.1,    5.8,    6.3,  999.0,  999.0,    6.7,    7.9,    8.5,  999.0,  999.0,  999.0,  999.0,  999.0,  999.0,  999.0,   11.0,   11.0,   11.1,   10.8,   10.4,   10.4,    9.7,    8.7,    8.1,    8.0,    7.9,    7.4,    5.5,    4.6,    4.7,    4.9,    5.2,    5.3,    5.0,    4.3,    4.0,    4.1,    4.1,    3.8,    3.4,    3.0,    2.7,    2.6,    2.9,    3.1,    3.2,    3.4,    3.8,    3.6,    3.7,    3.3,    2.3,    1.9,    0.7,   -0.3,   -0.9,   -1.4,   -1.9,   -2.1,   -2.7,   -2.8,   -2.7,   -2.5,   -2.4,   -2.4,   -3.1,   -3.9,   -4.7,  999.0,   -6.3,   -6.4,  999.0,  999.0,   -6.6,  999.0
2012/01/06 22:50,    0.6,    1.6,    1.6,    1.5,    3.5,    4.0,    4.4,    5.0,    5.7,    6.6,    5.8,    5.6,    8.2,    6.4,    6.7,    5.6,    6.1,    5.4,  999.0,  999.0,  999.0,  999.0,  999.0,  999.0,  999.0,  999.0,  999.0,  999.0,    3.8,  999.0,    4.9,    5.2,  999.0,  999.0,  999.0,  999.0,  999.0,  999.0,   10.9,   10.2,   10.9,   11.2,   11.0,   10.9,   11.0,   10.3,    9.7,    9.3,    9.6,    8.6,    6.6,    5.1,    5.1,    5.5,    5.7,    5.8,    5.9,    5.0,    4.5,    4.6,    4.7,    4.7,    4.4,    3.7,    3.2,    2.6,    2.4,    2.5,    2.7,    3.1,    3.3,    3.2,    3.5,    3.2,    2.2,    1.9,    1.0,   -0.2,   -1.2,   -1.8,   -2.3,   -2.5,   -2.8,   -3.2,   -3.0,   -2.8,   -2.5,   -2.5,   -2.9,   -3.6,  999.0,   -5.6,   -6.4,  999.0,  999.0,  999.0,   -7.3,  999.0
2012/01/06 23:00,    1.1,    1.6,    2.2,    2.0,    3.3,    4.4,    5.0,    6.2,    6.1,    6.1,    6.5,    6.2,    6.5,  999.0,  999.0,    4.0,  999.0,    6.2,    6.2,    6.7,    6.8,    7.7,    7.0,    6.6,  999.0,  999.0,  999.0,  999.0,    8.1,    8.6,    9.2,    9.1,  999.0,  999.0,  999.0,  999.0,  999.0,  999.0,  999.0,  999.0,  999.0,    9.9,   10.2,   10.3,   10.5,   10.8,   10.9,   10.3,    9.7,    9.1,    8.2,    6.8,    5.3,    4.9,    5.2,    5.5,    5.6,    5.5,    4.8,    4.3,    4.3,    4.2,    4.3,    3.8,    2.9,    2.1,    1.9,    1.8,    2.0,    2.5,    2.9,    3.3,    3.3,    3.0,    2.5,    1.9,    1.6,    0.4,   -0.9,   -1.7,   -2.2,   -2.4,   -2.7,   -3.2,   -3.0,   -2.7,   -2.4,   -2.4,   -2.6,   -3.3,   -4.3,   -5.1,   -5.9,   -6.7,   -7.2,   -7.0,   -7.0,   -7.8
2012/01/06 23:10,  999.0,  999.0,  999.0,  999.0,  999.0,  999.0,  999.0,  999.0,  999.0,  999.0,    5.4,    5.4,    6.5,  999.0,    6.8,    6.7,    7.2,    7.3,    6.9,    6.8,    6.8,  999.0,    7.1,    6.7,  999.0,  999.0,  999.0,    6.8,    8.0,    7.8,    8.4,  999.0,  999.0,  999.0,  999.0,  999.0,  999.0,  999.0,    9.3,  999.0,  999.0,   11.0,   11.8,   11.6,   10.7,   10.3,   10.9,   11.0,   10.1,    9.3,    8.5,    7.3,    6.0,    5.2,    5.3,    5.6,    5.9,    5.8,    5.5,    4.7,    4.3,    4.1,    4.2,    3.8,    2.9,    2.0,    1.7,    1.7,    1.8,    1.9,    2.2,    2.6,    3.0,    3.0,    2.7,    2.1,    1.7,    1.2,    0.1,   -1.1,   -1.9,   -2.2,   -2.7,   -3.0,   -3.3,   -3.1,   -2.7,   -2.6,   -2.6,   -2.9,   -3.5,   -4.4,   -5.3,   -6.1,   -6.5,   -6.4,   -6.7,   -7.5
2012/01/06 23:20,  999.0,  999.0,    1.5,    1.7,    2.7,  999.0,  999.0,    5.3,    5.5,    6.2,    6.3,    6.7,    6.4,    6.7,    6.7,    6.7,    7.2,    7.2,  999.0,    7.3,  999.0,  999.0,    7.6,    7.4,    7.4,  999.0,  999.0,  999.0,    8.7,    8.4,    9.1,    8.3,  999.0,  999.0,  999.0,  999.0,  999.0,  999.0,  999.0,  999.0,  999.0,   11.2,   11.4,   11.6,   11.6,   10.6,   10.4,   11.1,   10.6,    9.7,    9.2,    8.4,    7.0,    5.8,    5.4,    5.6,    5.9,    6.1,    5.8,    4.9,    4.3,    4.0,    4.1,    4.0,    3.1,    2.2,    1.7,    1.6,    1.6,    1.5,    1.7,    1.9,    2.0,    2.4,    2.6,    2.2,    1.8,    1.3,    0.9,    0.1,   -1.1,   -2.0,   -2.4,   -2.7,   -3.1,   -3.3,   -3.1,   -2.7,   -2.8,   -2.9,   -3.1,   -3.9,   -4.8,   -5.6,   -6.3,   -6.9,   -6.9,   -7.4
2012/01/06 23:30,    1.2,    0.3,    1.8,    2.5,    3.8,    4.0,    4.9,    5.9,    6.3,    6.5,    6.7,    6.8,    7.1,    6.8,    6.6,    7.1,    6.8,    6.9,  999.0,    7.4,  999.0,    7.2,    8.1,    7.6,    7.5,  999.0,    7.3,    8.1,    8.9,    8.8,    8.8,    8.9,    8.4,    8.3,  999.0,  999.0,  999.0,  999.0,  999.0,  999.0,  999.0,  999.0,   11.4,   11.7,   11.2,   10.5,   10.7,   10.9,   10.6,    9.9,    9.5,    8.6,    6.7,    5.5,    5.1,    5.4,    5.9,    6.1,    5.9,    5.3,    4.4,    4.2,    4.2,    4.1,    3.4,    2.1,    1.7,    1.6,    1.6,    1.5,    1.6,    1.9,    2.1,    2.2,    2.6,    2.7,    2.3,    1.9,    1.5,    0.9,    0.2,   -1.0,   -2.0,   -2.6,   -3.0,   -3.3,   -3.5,   -3.3,   -3.1,   -3.2,   -3.1,   -3.5,   -4.0,   -4.8,   -5.5,   -6.1,   -6.8,   -7.1
2012/01/06 23:40,    1.1,    1.5,    2.0,    2.5,    4.1,    3.8,    5.1,    6.1,    6.4,    6.4,    6.2,    7.2,    6.6,    5.9,    6.3,    5.8,    6.8,  999.0,  999.0,  999.0,  999.0,  999.0,  999.0,    8.3,  999.0,  999.0,  999.0,    9.7,   10.4,   10.2,  999.0,  999.0,    8.9,    9.0,  999.0,  999.0,  999.0,  999.0,  999.0,  999.0,  999.0,  999.0,   10.8,   10.9,   10.9,   11.1,   11.6,   11.5,   10.8,   10.1,    9.7,    9.1,    7.9,    6.5,    5.1,    5.1,    5.7,    5.7,    5.6,    5.3,    4.7,    4.3,    4.2,    3.9,    3.8,    2.5,    1.9,    1.8,    1.8,    1.7,    1.7,    2.0,    2.4,    2.3,    2.4,    2.4,    2.4,    2.0,    1.5,    1.0,    0.5,   -0.1,   -1.1,   -2.3,   -2.7,   -2.8,   -3.0,   -3.1,   -2.9,   -2.9,   -3.1,   -3.4,   -3.7,   -4.3,   -5.0,   -5.9,   -6.5,   -6.9
2012/01/06 23:50,   -0.0,    1.1,  999.0,  999.0,  999.0,  999.0,    4.2,    5.3,    5.7,    6.3,    6.2,    6.2,    6.4,    6.3,    6.2,    6.1,    5.8,    6.0,    6.9,  999.0,  999.0,    7.3,  999.0,    7.4,  999.0,  999.0,    7.6,    8.8,    9.2,    9.3,    9.6,    9.6,    9.4,  999.0,  999.0,  999.0,  999.0,  999.0,  999.0,  999.0,   12.3,   11.8,   11.5,   10.6,   10.8,   11.7,   11.7,   10.5,    9.8,   10.2,    9.5,    8.1,    7.0,    6.4,    5.5,    4.9,    4.9,    4.9,    4.9,    4.8,    4.4,    4.2,    4.5,    4.0,    4.0,    3.5,    2.2,    1.8,    1.9,    2.0,    2.1,    2.0,    2.2,    2.4,    2.3,    2.3,    2.4,    2.4,    2.1,    1.8,    1.4,    0.8,    0.3,   -0.6,   -1.8,   -2.4,   -2.6,   -3.0,   -2.9,   -3.0,   -3.1,   -3.4,   -3.9,   -4.2,   -4.8,   -5.6,   -6.3,   -6.6
